Wetterdaten: Mittwoch, 19.10.2022
Datum Zeit Temp. 2m Temp +5 cm Feuchte A. Luftdruck Regen Wind Richtung Richtung Sonnenschein UV Solar Taupunkt Windchill Windben
19.10.2022 00:00 10,8 C 9,4 C 92 % 1029,2 hPa 0,0 l/m 0,4 km/h (0 Bft) N-NO 26 0 min 0,0 UV-I 0 W/m 9,6 C 10,8 C 1,6 km/h (1 Bft)
19.10.2022 00:03 10,7 C 8,9 C 92 % 1029,3 hPa 0,0 l/m 0,7 km/h (0 Bft) N-NO 26 0 min 0,0 UV-I 0 W/m 9,5 C 10,7 C 3,2 km/h (1 Bft)
19.10.2022 00:06 10,6 C 8,9 C 92 % 1029,2 hPa 0,0 l/m 2,4 km/h (1 Bft) N-NO 26 0 min 0,0 UV-I 0 W/m 9,4 C 10,6 C 4,8 km/h (1 Bft)
19.10.2022 00:09 10,4 C 8,3 C 92 % 1029,3 hPa 0,0 l/m 2,3 km/h (1 Bft) N-NO 26 0 min 0,0 UV-I 0 W/m 9,2 C 10,4 C 4,8 km/h (1 Bft)
19.10.2022 00:12 10,3 C 8,3 C 92 % 1029,3 hPa 0,0 l/m 2,0 km/h (1 Bft) N-NO 26 0 min 0,0 UV-I 0 W/m 9,1 C 10,3 C 4,8 km/h (1 Bft)
19.10.2022 00:15 10,3 C 8,9 C 92 % 1029,3 hPa 0,0 l/m 0,0 km/h (0 Bft) N-NO 26 0 min 0,0 UV-I 0 W/m 9,1 C 10,3 C 0,0 km/h (0 Bft)
19.10.2022 00:18 10,3 C 8,9 C 92 % 1029,3 hPa 0,0 l/m 1,7 km/h (1 Bft) N-NO 26 0 min 0,0 UV-I 0 W/m 9,1 C 10,3 C 4,8 km/h (1 Bft)
19.10.2022 00:21 10,3 C 9,4 C 93 % 1029,2 hPa 0,0 l/m 1,7 km/h (1 Bft) N-NO 27 0 min 0,0 UV-I 0 W/m 9,2 C 10,3 C 4,8 km/h (1 Bft)
19.10.2022 00:24 10,4 C 9,4 C 92 % 1029,1 hPa 0,0 l/m 1,6 km/h (1 Bft) N-NO 27 0 min 0,0 UV-I 0 W/m 9,2 C 10,4 C 3,2 km/h (1 Bft)
19.10.2022 00:27 10,3 C 8,9 C 92 % 1029,1 hPa 0,0 l/m 1,6 km/h (1 Bft) N-NO 27 0 min 0,0 UV-I 0 W/m 9,1 C 10,3 C 3,2 km/h (1 Bft)
19.10.2022 00:30 10,2 C 8,3 C 92 % 1029,2 hPa 0,0 l/m 2,7 km/h (1 Bft) N-NO 27 0 min 0,0 UV-I 0 W/m 9,0 C 10,2 C 4,8 km/h (1 Bft)
19.10.2022 00:33 10,2 C 8,3 C 93 % 1029,2 hPa 0,0 l/m 2,6 km/h (1 Bft) N-NO 27 0 min 0,0 UV-I 0 W/m 9,1 C 10,2 C 4,8 km/h (1 Bft)
19.10.2022 00:36 10,2 C 8,3 C 92 % 1029,1 hPa 0,0 l/m 2,4 km/h (1 Bft) N-NO 27 0 min 0,0 UV-I 0 W/m 9,0 C 10,2 C 3,2 km/h (1 Bft)
19.10.2022 00:39 10,2 C 8,3 C 93 % 1029,2 hPa 0,0 l/m 3,9 km/h (1 Bft) N-NO 26 0 min 0,0 UV-I 0 W/m 9,1 C 10,2 C 4,8 km/h (1 Bft)
19.10.2022 00:42 10,3 C 8,9 C 93 % 1029,2 hPa 0,0 l/m 5,5 km/h (1 Bft) N-NO 21 0 min 0,0 UV-I 0 W/m 9,2 C 10,3 C 6,4 km/h (2 Bft)
19.10.2022 00:45 10,3 C 9,4 C 93 % 1029,1 hPa 0,0 l/m 6,2 km/h (2 Bft) N-NO 21 0 min 0,0 UV-I 0 W/m 9,2 C 10,3 C 8,0 km/h (2 Bft)
19.10.2022 00:48 10,3 C 8,9 C 93 % 1029,0 hPa 0,0 l/m 4,2 km/h (1 Bft) N-NO 21 0 min 0,0 UV-I 0 W/m 9,2 C 10,3 C 6,4 km/h (2 Bft)
19.10.2022 00:51 10,2 C 8,3 C 93 % 1029,0 hPa 0,0 l/m 2,9 km/h (1 Bft) N-NO 21 0 min 0,0 UV-I 0 W/m 9,1 C 10,2 C 4,8 km/h (1 Bft)
19.10.2022 00:54 10,0 C 8,3 C 93 % 1029,0 hPa 0,0 l/m 1,7 km/h (1 Bft) N-NO 21 0 min 0,0 UV-I 0 W/m 8,9 C 10,0 C 3,2 km/h (1 Bft)
19.10.2022 00:57 10,1 C 8,3 C 93 % 1029,0 hPa 0,0 l/m 1,3 km/h (1 Bft) N-NO 21 0 min 0,0 UV-I 0 W/m 9,0 C 10,1 C 3,2 km/h (1 Bft)
19.10.2022 01:00 10,1 C 8,9 C 93 % 1028,9 hPa 0,0 l/m 1,0 km/h (0 Bft) N-NO 21 0 min 0,0 UV-I 0 W/m 9,0 C 10,1 C 3,2 km/h (1 Bft)
19.10.2022 01:03 10,1 C 8,9 C 93 % 1029,0 hPa 0,0 l/m 0,7 km/h (0 Bft) N-NO 21 0 min 0,0 UV-I 0 W/m 9,0 C 10,1 C 3,2 km/h (1 Bft)
19.10.2022 01:06 10,1 C 8,3 C 93 % 1028,9 hPa 0,0 l/m 0,4 km/h (0 Bft) N-NO 21 0 min 0,0 UV-I 0 W/m 9,0 C 10,1 C 1,6 km/h (1 Bft)
19.10.2022 01:09 10,0 C 8,3 C 93 % 1029,0 hPa 0,0 l/m 1,1 km/h (1 Bft) N-NO 21 0 min 0,0 UV-I 0 W/m 8,9 C 10,0 C 3,2 km/h (1 Bft)
19.10.2022 01:12 10,1 C 8,3 C 93 % 1028,9 hPa 0,0 l/m 1,3 km/h (1 Bft) N-NO 21 0 min 0,0 UV-I 0 W/m 9,0 C 10,1 C 3,2 km/h (1 Bft)
19.10.2022 01:15 9,9 C 7,8 C 93 % 1028,8 hPa 0,0 l/m 2,5 km/h (1 Bft) N-NO 21 0 min 0,0 UV-I 0 W/m 8,8 C 9,9 C 4,8 km/h (1 Bft)
19.10.2022 01:18 9,8 C 7,8 C 93 % 1028,9 hPa 0,0 l/m 3,2 km/h (1 Bft) N-NO 21 0 min 0,0 UV-I 0 W/m 8,7 C 9,8 C 4,8 km/h (1 Bft)
19.10.2022 01:21 9,7 C 7,8 C 93 % 1028,9 hPa 0,0 l/m 3,5 km/h (1 Bft) N-NO 21 0 min 0,0 UV-I 0 W/m 8,6 C 9,7 C 4,8 km/h (1 Bft)
19.10.2022 01:24 9,8 C 7,8 C 93 % 1028,7 hPa 0,0 l/m 2,9 km/h (1 Bft) N-NO 21 0 min 0,0 UV-I 0 W/m 8,7 C 9,8 C 4,8 km/h (1 Bft)
19.10.2022 01:27 9,7 C 7,2 C 93 % 1028,9 hPa 0,0 l/m 2,9 km/h (1 Bft) N-NO 21 0 min 0,0 UV-I 0 W/m 8,6 C 9,7 C 4,8 km/h (1 Bft)
19.10.2022 01:30 9,7 C 7,2 C 93 % 1028,8 hPa 0,0 l/m 2,4 km/h (1 Bft) N-NO 21 0 min 0,0 UV-I 0 W/m 8,6 C 9,7 C 3,2 km/h (1 Bft)
19.10.2022 01:33 9,7 C 7,2 C 93 % 1028,8 hPa 0,0 l/m 3,0 km/h (1 Bft) N-NO 21 0 min 0,0 UV-I 0 W/m 8,6 C 9,7 C 4,8 km/h (1 Bft)
19.10.2022 01:36 9,6 C 7,2 C 93 % 1028,7 hPa 0,0 l/m 3,6 km/h (1 Bft) N-NO 21 0 min 0,0 UV-I 0 W/m 8,5 C 9,6 C 4,8 km/h (1 Bft)
19.10.2022 01:39 9,6 C 7,2 C 93 % 1028,8 hPa 0,0 l/m 3,6 km/h (1 Bft) N-NO 21 0 min 0,0 UV-I 0 W/m 8,5 C 9,6 C 4,8 km/h (1 Bft)
19.10.2022 01:42 9,7 C 7,2 C 93 % 1028,8 hPa 0,0 l/m 2,7 km/h (1 Bft) N-NO 21 0 min 0,0 UV-I 0 W/m 8,6 C 9,7 C 4,8 km/h (1 Bft)
19.10.2022 01:45 9,6 C 7,2 C 93 % 1028,9 hPa 0,0 l/m 1,1 km/h (1 Bft) N-NO 21 0 min 0,0 UV-I 0 W/m 8,5 C 9,6 C 3,2 km/h (1 Bft)
19.10.2022 01:48 9,4 C 6,7 C 93 % 1028,8 hPa 0,0 l/m 0,5 km/h (0 Bft) N-NO 21 0 min 0,0 UV-I 0 W/m 8,3 C 9,4 C 3,2 km/h (1 Bft)
19.10.2022 01:51 9,3 C 6,7 C 93 % 1028,8 hPa 0,0 l/m 0,6 km/h (0 Bft) N-NO 21 0 min 0,0 UV-I 0 W/m 8,2 C 9,3 C 1,6 km/h (1 Bft)
19.10.2022 01:54 9,2 C 6,7 C 93 % 1028,9 hPa 0,0 l/m 1,0 km/h (0 Bft) N-NO 21 0 min 0,0 UV-I 0 W/m 8,1 C 9,2 C 1,6 km/h (1 Bft)
19.10.2022 01:57 8,9 C 6,7 C 93 % 1028,8 hPa 0,0 l/m 2,3 km/h (1 Bft) N-NO 21 0 min 0,0 UV-I 0 W/m 7,8 C 8,9 C 4,8 km/h (1 Bft)
19.10.2022 02:00 8,9 C 6,7 C 93 % 1028,8 hPa 0,0 l/m 1,6 km/h (1 Bft) N-NO 21 0 min 0,0 UV-I 0 W/m 7,8 C 8,9 C 4,8 km/h (1 Bft)
19.10.2022 02:03 8,6 C 6,1 C 93 % 1028,8 hPa 0,0 l/m 0,2 km/h (0 Bft) N-NO 21 0 min 0,0 UV-I 0 W/m 7,5 C 8,6 C 1,6 km/h (1 Bft)
19.10.2022 02:06 8,5 C 6,7 C 93 % 1028,8 hPa 0,0 l/m 1,2 km/h (1 Bft) N-NO 21 0 min 0,0 UV-I 0 W/m 7,4 C 8,5 C 1,6 km/h (1 Bft)
19.10.2022 02:09 8,4 C 6,1 C 93 % 1028,8 hPa 0,0 l/m 0,6 km/h (0 Bft) N-NO 21 0 min 0,0 UV-I 0 W/m 7,3 C 8,4 C 1,6 km/h (1 Bft)
19.10.2022 02:12 8,3 C 6,1 C 93 % 1028,7 hPa 0,0 l/m 0,0 km/h (0 Bft) N-NO 21 0 min 0,0 UV-I 0 W/m 7,2 C 8,3 C 0,0 km/h (0 Bft)
19.10.2022 02:15 8,2 C 6,7 C 93 % 1028,7 hPa 0,0 l/m 0,0 km/h (0 Bft) N-NO 21 0 min 0,0 UV-I 0 W/m 7,1 C 8,2 C 0,0 km/h (0 Bft)
19.10.2022 02:18 8,1 C 6,7 C 94 % 1028,7 hPa 0,0 l/m 0,0 km/h (0 Bft) N-NO 21 0 min 0,0 UV-I 0 W/m 7,2 C 8,1 C 0,0 km/h (0 Bft)
19.10.2022 02:21 8,1 C 6,1 C 93 % 1028,7 hPa 0,0 l/m 0,4 km/h (0 Bft) N-NO 21 0 min 0,0 UV-I 0 W/m 7,0 C 8,1 C 4,8 km/h (1 Bft)
19.10.2022 02:24 8,3 C 6,1 C 94 % 1028,6 hPa 0,0 l/m 6,5 km/h (2 Bft) N 355 0 min 0,0 UV-I 0 W/m 7,4 C 8,2 C 8,0 km/h (2 Bft)
19.10.2022 02:27 8,6 C 6,7 C 94 % 1028,6 hPa 0,0 l/m 6,9 km/h (2 Bft) N 350 0 min 0,0 UV-I 0 W/m 7,7 C 8,2 C 8,0 km/h (2 Bft)
19.10.2022 02:30 8,6 C 6,7 C 94 % 1028,5 hPa 0,0 l/m 4,7 km/h (1 Bft) N 350 0 min 0,0 UV-I 0 W/m 7,7 C 8,6 C 6,4 km/h (2 Bft)
19.10.2022 02:33 8,3 C 6,7 C 94 % 1028,6 hPa 0,0 l/m 2,7 km/h (1 Bft) N 350 0 min 0,0 UV-I 0 W/m 7,4 C 8,3 C 4,8 km/h (1 Bft)
19.10.2022 02:36 7,9 C 6,7 C 93 % 1028,5 hPa 0,0 l/m 0,0 km/h (0 Bft) N 350 0 min 0,0 UV-I 0 W/m 6,8 C 7,9 C 0,0 km/h (0 Bft)
19.10.2022 02:39 7,8 C 6,7 C 93 % 1028,6 hPa 0,0 l/m 0,0 km/h (0 Bft) N 350 0 min 0,0 UV-I 0 W/m 6,7 C 7,8 C 0,0 km/h (0 Bft)
19.10.2022 02:42 7,9 C 6,7 C 94 % 1028,4 hPa 0,0 l/m 0,2 km/h (0 Bft) N 350 0 min 0,0 UV-I 0 W/m 7,0 C 7,9 C 1,6 km/h (1 Bft)
19.10.2022 02:45 8,0 C 7,2 C 94 % 1028,5 hPa 0,0 l/m 0,0 km/h (0 Bft) N 350 0 min 0,0 UV-I 0 W/m 7,1 C 8,0 C 0,0 km/h (0 Bft)
19.10.2022 02:48 8,1 C 7,2 C 94 % 1028,5 hPa 0,0 l/m 0,0 km/h (0 Bft) N 350 0 min 0,0 UV-I 0 W/m 7,2 C 8,1 C 0,0 km/h (0 Bft)
19.10.2022 02:51 8,1 C 6,7 C 94 % 1028,6 hPa 0,0 l/m 0,9 km/h (0 Bft) N 350 0 min 0,0 UV-I 0 W/m 7,2 C 8,1 C 4,8 km/h (1 Bft)
19.10.2022 02:54 8,0 C 6,7 C 94 % 1028,6 hPa 0,0 l/m 2,5 km/h (1 Bft) N 350 0 min 0,0 UV-I 0 W/m 7,1 C 8,0 C 3,2 km/h (1 Bft)
19.10.2022 02:57 8,0 C 6,7 C 94 % 1028,6 hPa 0,0 l/m 2,4 km/h (1 Bft) N 350 0 min 0,0 UV-I 0 W/m 7,1 C 8,0 C 4,8 km/h (1 Bft)
19.10.2022 03:00 7,8 C 6,7 C 94 % 1028,6 hPa 0,0 l/m 0,2 km/h (0 Bft) N 350 0 min 0,0 UV-I 0 W/m 6,9 C 7,8 C 1,6 km/h (1 Bft)
19.10.2022 03:03 7,4 C 6,7 C 93 % 1028,6 hPa 0,0 l/m 0,9 km/h (0 Bft) N 350 0 min 0,0 UV-I 0 W/m 6,3 C 7,4 C 1,6 km/h (1 Bft)
19.10.2022 03:06 7,4 C 6,7 C 94 % 1028,6 hPa 0,0 l/m 1,3 km/h (1 Bft) N 350 0 min 0,0 UV-I 0 W/m 6,5 C 7,4 C 1,6 km/h (1 Bft)
19.10.2022 03:09 7,3 C 6,7 C 94 % 1028,5 hPa 0,0 l/m 0,4 km/h (0 Bft) N 350 0 min 0,0 UV-I 0 W/m 6,4 C 7,3 C 1,6 km/h (1 Bft)
19.10.2022 03:12 7,3 C 6,7 C 94 % 1028,5 hPa 0,0 l/m 1,5 km/h (1 Bft) N 350 0 min 0,0 UV-I 0 W/m 6,4 C 7,3 C 3,2 km/h (1 Bft)
19.10.2022 03:15 7,2 C 6,7 C 94 % 1028,5 hPa 0,0 l/m 0,7 km/h (0 Bft) N 350 0 min 0,0 UV-I 0 W/m 6,3 C 7,2 C 1,6 km/h (1 Bft)
19.10.2022 03:18 7,2 C 6,7 C 94 % 1028,5 hPa 0,0 l/m 0,6 km/h (0 Bft) N 350 0 min 0,0 UV-I 0 W/m 6,3 C 7,2 C 3,2 km/h (1 Bft)
19.10.2022 03:21 7,3 C 6,7 C 94 % 1028,4 hPa 0,0 l/m 2,9 km/h (1 Bft) N 350 0 min 0,0 UV-I 0 W/m 6,4 C 7,3 C 4,8 km/h (1 Bft)
19.10.2022 03:24 7,3 C 6,7 C 94 % 1028,4 hPa 0,0 l/m 2,9 km/h (1 Bft) N 350 0 min 0,0 UV-I 0 W/m 6,4 C 7,3 C 3,2 km/h (1 Bft)
19.10.2022 03:27 7,3 C 6,7 C 94 % 1028,4 hPa 0,0 l/m 2,2 km/h (1 Bft) N 350 0 min 0,0 UV-I 0 W/m 6,4 C 7,3 C 3,2 km/h (1 Bft)
19.10.2022 03:30 7,2 C 7,2 C 94 % 1028,3 hPa 0,0 l/m 1,7 km/h (1 Bft) N 350 0 min 0,0 UV-I 0 W/m 6,3 C 7,2 C 3,2 km/h (1 Bft)
19.10.2022 03:33 7,2 C 6,7 C 94 % 1028,4 hPa 0,0 l/m 0,0 km/h (0 Bft) N 350 0 min 0,0 UV-I 0 W/m 6,3 C 7,2 C 0,0 km/h (0 Bft)
19.10.2022 03:36 7,1 C 6,7 C 94 % 1028,3 hPa 0,0 l/m 0,0 km/h (0 Bft) N 350 0 min 0,0 UV-I 0 W/m 6,2 C 7,1 C 0,0 km/h (0 Bft)
19.10.2022 03:39 6,9 C 6,1 C 94 % 1028,2 hPa 0,0 l/m 0,2 km/h (0 Bft) N 350 0 min 0,0 UV-I 0 W/m 6,0 C 6,9 C 1,6 km/h (1 Bft)
19.10.2022 03:42 6,8 C 6,1 C 94 % 1028,2 hPa 0,0 l/m 1,5 km/h (1 Bft) N 350 0 min 0,0 UV-I 0 W/m 5,9 C 6,8 C 3,2 km/h (1 Bft)
19.10.2022 03:45 6,8 C 6,1 C 94 % 1028,3 hPa 0,0 l/m 0,6 km/h (0 Bft) N 350 0 min 0,0 UV-I 0 W/m 5,9 C 6,8 C 1,6 km/h (1 Bft)
19.10.2022 03:48 6,8 C 6,1 C 94 % 1028,3 hPa 0,0 l/m 1,4 km/h (1 Bft) N 350 0 min 0,0 UV-I 0 W/m 5,9 C 6,8 C 3,2 km/h (1 Bft)
19.10.2022 03:51 6,7 C 6,1 C 94 % 1028,2 hPa 0,0 l/m 0,8 km/h (0 Bft) N 350 0 min 0,0 UV-I 0 W/m 5,8 C 6,7 C 1,6 km/h (1 Bft)
19.10.2022 03:54 6,6 C 6,1 C 94 % 1028,2 hPa 0,0 l/m 0,5 km/h (0 Bft) N 350 0 min 0,0 UV-I 0 W/m 5,7 C 6,6 C 1,6 km/h (1 Bft)
19.10.2022 03:57 6,6 C 5,6 C 94 % 1028,2 hPa 0,0 l/m 1,3 km/h (1 Bft) N 350 0 min 0,0 UV-I 0 W/m 5,7 C 6,6 C 1,6 km/h (1 Bft)
19.10.2022 04:00 6,5 C 5,6 C 94 % 1028,2 hPa 0,0 l/m 0,4 km/h (0 Bft) N 350 0 min 0,0 UV-I 0 W/m 5,6 C 6,5 C 1,6 km/h (1 Bft)
19.10.2022 04:03 6,5 C 5,6 C 94 % 1028,2 hPa 0,0 l/m 0,8 km/h (0 Bft) N 350 0 min 0,0 UV-I 0 W/m 5,6 C 6,5 C 1,6 km/h (1 Bft)
19.10.2022 04:06 6,4 C 5,0 C 94 % 1028,2 hPa 0,0 l/m 0,2 km/h (0 Bft) N 350 0 min 0,0 UV-I 0 W/m 5,5 C 6,4 C 1,6 km/h (1 Bft)
19.10.2022 04:09 6,3 C 5,6 C 94 % 1028,2 hPa 0,0 l/m 0,0 km/h (0 Bft) N 350 0 min 0,0 UV-I 0 W/m 5,4 C 6,3 C 0,0 km/h (0 Bft)
19.10.2022 04:12 6,3 C 5,0 C 94 % 1028,1 hPa 0,0 l/m 0,0 km/h (0 Bft) N 350 0 min 0,0 UV-I 0 W/m 5,4 C 6,3 C 0,0 km/h (0 Bft)
19.10.2022 04:15 6,2 C 5,0 C 94 % 1028,2 hPa 0,0 l/m 0,3 km/h (0 Bft) N 350 0 min 0,0 UV-I 0 W/m 5,3 C 6,2 C 1,6 km/h (1 Bft)
19.10.2022 04:18 6,1 C 5,0 C 94 % 1028,1 hPa 0,0 l/m 1,1 km/h (1 Bft) N 350 0 min 0,0 UV-I 0 W/m 5,2 C 6,1 C 1,6 km/h (1 Bft)
19.10.2022 04:21 6,1 C 5,0 C 94 % 1028,2 hPa 0,0 l/m 0,0 km/h (0 Bft) N 350 0 min 0,0 UV-I 0 W/m 5,2 C 6,1 C 0,0 km/h (0 Bft)
19.10.2022 04:24 6,1 C 5,0 C 94 % 1028,1 hPa 0,0 l/m 0,0 km/h (0 Bft) N 350 0 min 0,0 UV-I 0 W/m 5,2 C 6,1 C 0,0 km/h (0 Bft)
19.10.2022 04:27 6,1 C 5,6 C 94 % 1028,1 hPa 0,0 l/m 0,0 km/h (0 Bft) N 350 0 min 0,0 UV-I 0 W/m 5,2 C 6,1 C 0,0 km/h (0 Bft)
19.10.2022 04:30 5,9 C 5,0 C 94 % 1028,0 hPa 0,0 l/m 0,0 km/h (0 Bft) N 350 0 min 0,0 UV-I 0 W/m 5,0 C 5,9 C 0,0 km/h (0 Bft)
19.10.2022 04:33 5,9 C 5,0 C 94 % 1028,0 hPa 0,0 l/m 0,0 km/h (0 Bft) N 350 0 min 0,0 UV-I 0 W/m 5,0 C 5,9 C 0,0 km/h (0 Bft)
19.10.2022 04:36 5,8 C 5,0 C 94 % 1028,1 hPa 0,0 l/m 0,2 km/h (0 Bft) N 350 0 min 0,0 UV-I 0 W/m 4,9 C 5,8 C 1,6 km/h (1 Bft)
19.10.2022 04:39 5,8 C 5,0 C 94 % 1028,0 hPa 0,0 l/m 1,6 km/h (1 Bft) N 350 0 min 0,0 UV-I 0 W/m 4,9 C 5,8 C 3,2 km/h (1 Bft)
19.10.2022 04:42 5,8 C 4,4 C 94 % 1027,9 hPa 0,0 l/m 1,2 km/h (1 Bft) N 350 0 min 0,0 UV-I 0 W/m 4,9 C 5,8 C 3,2 km/h (1 Bft)
19.10.2022 04:45 5,7 C 4,4 C 94 % 1027,9 hPa 0,0 l/m 0,8 km/h (0 Bft) N 350 0 min 0,0 UV-I 0 W/m 4,8 C 5,7 C 3,2 km/h (1 Bft)
19.10.2022 04:48 5,6 C 4,4 C 94 % 1027,9 hPa 0,0 l/m 0,0 km/h (0 Bft) N 350 0 min 0,0 UV-I 0 W/m 4,7 C 5,6 C 0,0 km/h (0 Bft)
19.10.2022 04:51 5,4 C 4,4 C 94 % 1027,8 hPa 0,0 l/m 0,4 km/h (0 Bft) N 350 0 min 0,0 UV-I 0 W/m 4,5 C 5,4 C 1,6 km/h (1 Bft)
19.10.2022 04:54 5,3 C 4,4 C 94 % 1027,8 hPa 0,0 l/m 2,0 km/h (1 Bft) N 350 0 min 0,0 UV-I 0 W/m 4,4 C 5,3 C 3,2 km/h (1 Bft)
19.10.2022 04:57 5,2 C 4,4 C 94 % 1027,7 hPa 0,0 l/m 2,4 km/h (1 Bft) N-NW 348 0 min 0,0 UV-I 0 W/m 4,3 C 5,2 C 3,2 km/h (1 Bft)
19.10.2022 05:00 5,2 C 4,4 C 94 % 1027,8 hPa 0,0 l/m 3,8 km/h (1 Bft) NW 311 0 min 0,0 UV-I 0 W/m 4,3 C 5,2 C 4,8 km/h (1 Bft)
19.10.2022 05:03 5,1 C 4,4 C 94 % 1027,8 hPa 0,0 l/m 4,5 km/h (1 Bft) W-NW 285 0 min 0,0 UV-I 0 W/m 4,2 C 5,1 C 6,4 km/h (2 Bft)
19.10.2022 05:06 5,2 C 4,4 C 94 % 1027,9 hPa 0,0 l/m 3,3 km/h (1 Bft) W-NW 285 0 min 0,0 UV-I 0 W/m 4,3 C 5,2 C 4,8 km/h (1 Bft)
19.10.2022 05:09 5,1 C 3,9 C 94 % 1027,9 hPa 0,0 l/m 2,4 km/h (1 Bft) W-NW 285 0 min 0,0 UV-I 0 W/m 4,2 C 5,1 C 3,2 km/h (1 Bft)
19.10.2022 05:12 5,1 C 3,3 C 94 % 1028,0 hPa 0,0 l/m 1,1 km/h (1 Bft) W-NW 285 0 min 0,0 UV-I 0 W/m 4,2 C 5,1 C 1,6 km/h (1 Bft)
19.10.2022 05:15 5,0 C 3,3 C 94 % 1028,0 hPa 0,0 l/m 0,8 km/h (0 Bft) W-NW 285 0 min 0,0 UV-I 0 W/m 4,1 C 5,0 C 1,6 km/h (1 Bft)
19.10.2022 05:18 4,9 C 3,3 C 94 % 1028,0 hPa 0,0 l/m 1,1 km/h (1 Bft) W-NW 285 0 min 0,0 UV-I 0 W/m 4,0 C 4,9 C 3,2 km/h (1 Bft)
19.10.2022 05:21 4,8 C 3,3 C 94 % 1028,0 hPa 0,0 l/m 0,0 km/h (0 Bft) W-NW 285 0 min 0,0 UV-I 0 W/m 3,9 C 4,8 C 0,0 km/h (0 Bft)
19.10.2022 05:24 4,6 C 3,3 C 94 % 1028,0 hPa 0,0 l/m 0,0 km/h (0 Bft) W-NW 285 0 min 0,0 UV-I 0 W/m 3,7 C 4,6 C 0,0 km/h (0 Bft)
19.10.2022 05:27 4,4 C 3,3 C 94 % 1028,1 hPa 0,0 l/m 0,0 km/h (0 Bft) W-NW 285 0 min 0,0 UV-I 0 W/m 3,5 C 4,4 C 0,0 km/h (0 Bft)
19.10.2022 05:30 4,5 C 3,3 C 94 % 1028,1 hPa 0,0 l/m 0,0 km/h (0 Bft) W-NW 285 0 min 0,0 UV-I 0 W/m 3,6 C 4,5 C 0,0 km/h (0 Bft)
19.10.2022 05:33 4,7 C 3,3 C 94 % 1028,0 hPa 0,0 l/m 0,0 km/h (0 Bft) W-NW 285 0 min 0,0 UV-I 0 W/m 3,8 C 4,7 C 1,6 km/h (1 Bft)
19.10.2022 05:36 4,7 C 3,9 C 94 % 1028,0 hPa 0,0 l/m 0,3 km/h (0 Bft) W-NW 285 0 min 0,0 UV-I 0 W/m 3,8 C 4,7 C 1,6 km/h (1 Bft)
19.10.2022 05:39 4,7 C 3,9 C 94 % 1027,9 hPa 0,0 l/m 0,9 km/h (0 Bft) W-NW 285 0 min 0,0 UV-I 0 W/m 3,8 C 4,7 C 1,6 km/h (1 Bft)
19.10.2022 05:42 4,8 C 3,9 C 94 % 1027,8 hPa 0,0 l/m 1,3 km/h (1 Bft) W-NW 285 0 min 0,0 UV-I 0 W/m 3,9 C 4,8 C 3,2 km/h (1 Bft)
19.10.2022 05:45 4,8 C 3,9 C 94 % 1027,8 hPa 0,0 l/m 1,3 km/h (1 Bft) W-NW 285 0 min 0,0 UV-I 0 W/m 3,9 C 4,8 C 1,6 km/h (1 Bft)
19.10.2022 05:48 4,9 C 3,9 C 94 % 1027,9 hPa 0,0 l/m 0,0 km/h (0 Bft) W-NW 285 0 min 0,0 UV-I 0 W/m 4,0 C 4,9 C 1,6 km/h (1 Bft)
19.10.2022 05:51 4,8 C 3,9 C 94 % 1027,7 hPa 0,0 l/m 0,0 km/h (0 Bft) W-NW 285 0 min 0,0 UV-I 0 W/m 3,9 C 4,8 C 0,0 km/h (0 Bft)
19.10.2022 05:54 4,8 C 3,9 C 94 % 1027,8 hPa 0,0 l/m 0,0 km/h (0 Bft) W-NW 285 0 min 0,0 UV-I 0 W/m 3,9 C 4,8 C 0,0 km/h (0 Bft)
19.10.2022 05:57 4,9 C 3,9 C 94 % 1027,8 hPa 0,0 l/m 0,5 km/h (0 Bft) W-NW 285 0 min 0,0 UV-I 0 W/m 4,0 C 4,9 C 1,6 km/h (1 Bft)
19.10.2022 06:00 5,0 C 3,9 C 94 % 1027,8 hPa 0,0 l/m 0,8 km/h (0 Bft) W-NW 285 0 min 0,0 UV-I 0 W/m 4,1 C 5,0 C 1,6 km/h (1 Bft)
19.10.2022 06:03 4,9 C 3,9 C 94 % 1027,9 hPa 0,0 l/m 0,0 km/h (0 Bft) W-NW 285 0 min 0,0 UV-I 0 W/m 4,0 C 4,9 C 0,0 km/h (0 Bft)
19.10.2022 06:06 4,8 C 3,3 C 94 % 1027,9 hPa 0,0 l/m 0,7 km/h (0 Bft) W-NW 285 0 min 0,0 UV-I 0 W/m 3,9 C 4,8 C 1,6 km/h (1 Bft)
19.10.2022 06:09 4,7 C 3,3 C 94 % 1027,8 hPa 0,0 l/m 0,8 km/h (0 Bft) W-NW 285 0 min 0,0 UV-I 0 W/m 3,8 C 4,7 C 1,6 km/h (1 Bft)
19.10.2022 06:12 4,4 C 3,3 C 94 % 1027,8 hPa 0,0 l/m 0,3 km/h (0 Bft) W-NW 285 0 min 0,0 UV-I 0 W/m 3,5 C 4,4 C 1,6 km/h (1 Bft)
19.10.2022 06:15 4,1 C 2,8 C 94 % 1027,8 hPa 0,0 l/m 0,5 km/h (0 Bft) W-NW 285 0 min 0,0 UV-I 0 W/m 3,2 C 4,1 C 1,6 km/h (1 Bft)
19.10.2022 06:18 4,2 C 2,8 C 94 % 1027,7 hPa 0,0 l/m 0,0 km/h (0 Bft) W-NW 285 0 min 0,0 UV-I 0 W/m 3,3 C 4,2 C 0,0 km/h (0 Bft)
19.10.2022 06:21 4,2 C 3,3 C 94 % 1027,8 hPa 0,0 l/m 0,0 km/h (0 Bft) W-NW 285 0 min 0,0 UV-I 0 W/m 3,3 C 4,2 C 0,0 km/h (0 Bft)
19.10.2022 06:24 4,3 C 3,3 C 94 % 1027,8 hPa 0,0 l/m 0,0 km/h (0 Bft) W-NW 285 0 min 0,0 UV-I 0 W/m 3,4 C 4,3 C 0,0 km/h (0 Bft)
19.10.2022 06:27 4,2 C 3,3 C 94 % 1027,8 hPa 0,0 l/m 0,0 km/h (0 Bft) W-NW 285 0 min 0,0 UV-I 0 W/m 3,3 C 4,2 C 0,0 km/h (0 Bft)
19.10.2022 06:30 4,2 C 3,3 C 94 % 1027,7 hPa 0,0 l/m 0,3 km/h (0 Bft) W-NW 285 0 min 0,0 UV-I 0 W/m 3,3 C 4,2 C 1,6 km/h (1 Bft)
19.10.2022 06:33 4,1 C 3,3 C 94 % 1027,8 hPa 0,0 l/m 1,5 km/h (1 Bft) W-NW 285 0 min 0,0 UV-I 0 W/m 3,2 C 4,1 C 3,2 km/h (1 Bft)
19.10.2022 06:36 4,1 C 3,3 C 94 % 1027,9 hPa 0,0 l/m 0,4 km/h (0 Bft) W-NW 285 0 min 0,0 UV-I 0 W/m 3,2 C 4,1 C 1,6 km/h (1 Bft)
19.10.2022 06:39 4,1 C 3,3 C 94 % 1027,9 hPa 0,0 l/m 1,2 km/h (1 Bft) W-NW 285 0 min 0,0 UV-I 0 W/m 3,2 C 4,1 C 1,6 km/h (1 Bft)
19.10.2022 06:42 4,1 C 3,3 C 94 % 1027,8 hPa 0,0 l/m 0,1 km/h (0 Bft) W-NW 285 0 min 0,0 UV-I 0 W/m 3,2 C 4,1 C 1,6 km/h (1 Bft)
19.10.2022 06:45 4,2 C 3,3 C 94 % 1027,8 hPa 0,0 l/m 0,0 km/h (0 Bft) W-NW 285 0 min 0,0 UV-I 0 W/m 3,3 C 4,2 C 0,0 km/h (0 Bft)
19.10.2022 06:48 4,2 C 3,3 C 95 % 1027,8 hPa 0,0 l/m 0,1 km/h (0 Bft) W-NW 285 0 min 0,0 UV-I 0 W/m 3,5 C 4,2 C 1,6 km/h (1 Bft)
19.10.2022 06:51 4,2 C 3,3 C 94 % 1027,8 hPa 0,0 l/m 0,1 km/h (0 Bft) W-NW 285 0 min 0,0 UV-I 0 W/m 3,3 C 4,2 C 1,6 km/h (1 Bft)
19.10.2022 06:54 4,2 C 3,3 C 94 % 1027,9 hPa 0,0 l/m 0,0 km/h (0 Bft) W-NW 285 0 min 0,0 UV-I 0 W/m 3,3 C 4,2 C 0,0 km/h (0 Bft)
19.10.2022 06:57 4,2 C 3,9 C 94 % 1027,8 hPa 0,0 l/m 0,2 km/h (0 Bft) W-NW 285 0 min 0,0 UV-I 0 W/m 3,3 C 4,2 C 1,6 km/h (1 Bft)
19.10.2022 07:00 4,3 C 4,4 C 94 % 1027,8 hPa 0,0 l/m 1,3 km/h (1 Bft) W-NW 285 0 min 0,0 UV-I 0 W/m 3,4 C 4,3 C 3,2 km/h (1 Bft)
19.10.2022 07:01 4,4 C 4,4 C 94 % 1027,8 hPa 0,0 l/m 3,2 km/h (1 Bft) W-NW 292 0 min 0,0 UV-I 0 W/m 3,5 C 4,4 C 3,2 km/h (1 Bft)
19.10.2022 07:03 4,6 C 5,0 C 95 % 1027,8 hPa 0,0 l/m 1,9 km/h (1 Bft) W-NW 285 0 min 0,0 UV-I 0 W/m 3,9 C 4,6 C 3,2 km/h (1 Bft)
19.10.2022 07:06 4,7 C 5,0 C 95 % 1027,8 hPa 0,0 l/m 1,0 km/h (0 Bft) W-NW 285 0 min 0,0 UV-I 0 W/m 4,0 C 4,7 C 3,2 km/h (1 Bft)
19.10.2022 07:09 4,8 C 5,0 C 95 % 1027,8 hPa 0,0 l/m 1,0 km/h (0 Bft) W-NW 285 0 min 0,0 UV-I 0 W/m 4,1 C 4,8 C 3,2 km/h (1 Bft)
19.10.2022 07:12 4,9 C 5,0 C 95 % 1027,7 hPa 0,0 l/m 0,8 km/h (0 Bft) W-NW 286 0 min 0,0 UV-I 0 W/m 4,2 C 4,9 C 3,2 km/h (1 Bft)
19.10.2022 07:15 5,2 C 5,6 C 95 % 1027,8 hPa 0,0 l/m 4,5 km/h (1 Bft) N-NO 31 0 min 0,0 UV-I 0 W/m 4,5 C 5,2 C 8,0 km/h (2 Bft)
19.10.2022 07:18 5,5 C 5,6 C 95 % 1027,7 hPa 0,0 l/m 4,0 km/h (1 Bft) N-NO 30 0 min 0,0 UV-I 0 W/m 4,8 C 5,5 C 4,8 km/h (1 Bft)
19.10.2022 07:21 5,8 C 5,6 C 95 % 1027,7 hPa 0,0 l/m 2,9 km/h (1 Bft) N 9 0 min 0,0 UV-I 0 W/m 5,1 C 5,8 C 6,4 km/h (2 Bft)
19.10.2022 07:24 6,3 C 6,1 C 95 % 1027,7 hPa 0,0 l/m 4,4 km/h (1 Bft) N-NW 344 0 min 0,0 UV-I 0 W/m 5,6 C 6,3 C 6,4 km/h (2 Bft)
19.10.2022 07:27 6,9 C 6,7 C 95 % 1027,6 hPa 0,0 l/m 5,4 km/h (1 Bft) N 355 0 min 0,0 UV-I 0 W/m 6,2 C 6,9 C 8,0 km/h (2 Bft)
19.10.2022 07:30 7,2 C 7,2 C 95 % 1027,5 hPa 0,0 l/m 6,6 km/h (2 Bft) N-NO 13 0 min 0,0 UV-I 0 W/m 6,5 C 7,1 C 8,0 km/h (2 Bft)
19.10.2022 07:33 7,1 C 7,2 C 95 % 1027,5 hPa 0,0 l/m 4,1 km/h (1 Bft) N 5 0 min 0,0 UV-I 0 W/m 6,4 C 7,1 C 6,4 km/h (2 Bft)
19.10.2022 07:36 7,1 C 7,8 C 95 % 1027,5 hPa 0,0 l/m 4,0 km/h (1 Bft) N 360 0 min 0,0 UV-I 0 W/m 6,4 C 7,1 C 6,4 km/h (2 Bft)
19.10.2022 07:39 7,1 C 7,8 C 95 % 1027,5 hPa 0,0 l/m 3,7 km/h (1 Bft) N 360 0 min 0,0 UV-I 0 W/m 6,4 C 7,1 C 4,8 km/h (1 Bft)
19.10.2022 07:42 7,1 C 7,8 C 95 % 1027,4 hPa 0,0 l/m 5,2 km/h (1 Bft) N 355 0 min 0,0 UV-I 0 W/m 6,4 C 7,1 C 8,0 km/h (2 Bft)
19.10.2022 07:45 7,2 C 7,8 C 95 % 1027,5 hPa 0,0 l/m 5,9 km/h (2 Bft) N 5 0 min 0,0 UV-I 0 W/m 6,5 C 7,2 C 8,0 km/h (2 Bft)
19.10.2022 07:48 7,2 C 7,8 C 95 % 1027,4 hPa 0,0 l/m 4,6 km/h (1 Bft) N 349 0 min 0,0 UV-I 0 W/m 6,5 C 7,2 C 6,4 km/h (2 Bft)
19.10.2022 07:51 7,3 C 7,8 C 95 % 1027,5 hPa 0,0 l/m 3,4 km/h (1 Bft) N-NW 348 0 min 0,0 UV-I 0 W/m 6,6 C 7,3 C 6,4 km/h (2 Bft)
19.10.2022 07:54 7,3 C 7,8 C 95 % 1027,5 hPa 0,0 l/m 4,9 km/h (1 Bft) N 350 0 min 0,0 UV-I 0 W/m 6,6 C 7,3 C 6,4 km/h (2 Bft)
19.10.2022 07:57 7,2 C 7,8 C 95 % 1027,4 hPa 0,0 l/m 5,3 km/h (1 Bft) N 355 0 min 0,0 UV-I 0 W/m 6,5 C 7,2 C 6,4 km/h (2 Bft)
19.10.2022 08:00 7,2 C 7,2 C 95 % 1027,4 hPa 0,0 l/m 5,6 km/h (1 Bft) N 355 0 min 0,0 UV-I 0 W/m 6,5 C 7,2 C 8,0 km/h (2 Bft)
19.10.2022 08:03 7,2 C 7,8 C 95 % 1027,5 hPa 0,0 l/m 4,1 km/h (1 Bft) N 351 0 min 0,0 UV-I 0 W/m 6,5 C 7,2 C 6,4 km/h (2 Bft)
19.10.2022 08:06 7,1 C 7,2 C 95 % 1027,4 hPa 0,0 l/m 4,4 km/h (1 Bft) N-NW 348 0 min 0,0 UV-I 0 W/m 6,4 C 7,1 C 6,4 km/h (2 Bft)
19.10.2022 08:09 7,1 C 7,8 C 95 % 1027,4 hPa 0,0 l/m 5,8 km/h (2 Bft) N 5 0 min 0,0 UV-I 0 W/m 6,4 C 7,1 C 8,0 km/h (2 Bft)
19.10.2022 08:12 7,1 C 7,8 C 95 % 1027,4 hPa 0,0 l/m 5,4 km/h (1 Bft) N 9 0 min 0,0 UV-I 0 W/m 6,4 C 7,1 C 6,4 km/h (2 Bft)
19.10.2022 08:15 6,9 C 7,8 C 95 % 1027,4 hPa 0,0 l/m 5,2 km/h (1 Bft) N-NO 13 0 min 0,0 UV-I 5 W/m 6,2 C 6,9 C 6,4 km/h (2 Bft)
19.10.2022 08:18 6,9 C 7,8 C 95 % 1027,4 hPa 0,0 l/m 6,2 km/h (2 Bft) N-NO 19 0 min 0,0 UV-I 6 W/m 6,2 C 6,9 C 8,0 km/h (2 Bft)
19.10.2022 08:21 6,9 C 7,8 C 95 % 1027,5 hPa 0,0 l/m 4,5 km/h (1 Bft) N-NO 22 0 min 0,0 UV-I 8 W/m 6,2 C 6,9 C 6,4 km/h (2 Bft)
19.10.2022 08:24 6,9 C 7,8 C 95 % 1027,4 hPa 0,0 l/m 5,8 km/h (2 Bft) N-NO 19 0 min 0,0 UV-I 10 W/m 6,2 C 6,9 C 11,3 km/h (2 Bft)
19.10.2022 08:27 6,8 C 7,8 C 95 % 1027,4 hPa 0,0 l/m 6,3 km/h (2 Bft) N-NO 13 0 min 0,0 UV-I 11 W/m 6,1 C 6,8 C 8,0 km/h (2 Bft)
19.10.2022 08:30 6,8 C 7,8 C 95 % 1027,5 hPa 0,0 l/m 5,5 km/h (1 Bft) N 5 0 min 0,0 UV-I 12 W/m 6,1 C 6,8 C 8,0 km/h (2 Bft)
19.10.2022 08:33 6,8 C 7,8 C 95 % 1027,5 hPa 0,0 l/m 4,6 km/h (1 Bft) N-NO 15 0 min 0,0 UV-I 15 W/m 6,1 C 6,8 C 6,4 km/h (2 Bft)
19.10.2022 08:36 6,8 C 7,8 C 95 % 1027,5 hPa 0,0 l/m 5,8 km/h (2 Bft) N-NO 13 0 min 0,0 UV-I 17 W/m 6,1 C 6,8 C 8,0 km/h (2 Bft)
19.10.2022 08:39 6,8 C 7,8 C 95 % 1027,5 hPa 0,0 l/m 5,5 km/h (1 Bft) N-NO 17 0 min 0,0 UV-I 19 W/m 6,1 C 6,8 C 8,0 km/h (2 Bft)
19.10.2022 08:42 6,8 C 7,8 C 95 % 1027,5 hPa 0,0 l/m 4,8 km/h (1 Bft) N-NO 15 0 min 0,0 UV-I 22 W/m 6,1 C 6,8 C 6,4 km/h (2 Bft)
19.10.2022 08:45 6,8 C 7,8 C 95 % 1027,6 hPa 0,0 l/m 5,5 km/h (1 Bft) N-NO 16 0 min 0,0 UV-I 22 W/m 6,1 C 6,8 C 8,0 km/h (2 Bft)
19.10.2022 08:48 6,8 C 7,8 C 95 % 1027,6 hPa 0,0 l/m 3,7 km/h (1 Bft) N-NO 14 0 min 0,0 UV-I 26 W/m 6,1 C 6,8 C 4,8 km/h (1 Bft)
19.10.2022 08:51 6,8 C 7,8 C 95 % 1027,5 hPa 0,0 l/m 4,8 km/h (1 Bft) N-NO 15 0 min 0,0 UV-I 25 W/m 6,1 C 6,8 C 8,0 km/h (2 Bft)
19.10.2022 08:54 6,8 C 7,8 C 95 % 1027,4 hPa 0,0 l/m 5,9 km/h (2 Bft) N 11 0 min 0,0 UV-I 29 W/m 6,1 C 6,8 C 8,0 km/h (2 Bft)
19.10.2022 08:57 6,8 C 7,8 C 95 % 1027,5 hPa 0,0 l/m 4,9 km/h (1 Bft) N 9 0 min 0,0 UV-I 29 W/m 6,1 C 6,8 C 6,4 km/h (2 Bft)
19.10.2022 09:00 6,8 C 7,8 C 95 % 1027,5 hPa 0,0 l/m 5,7 km/h (1 Bft) N-NO 33 0 min 0,0 UV-I 31 W/m 6,1 C 6,8 C 8,0 km/h (2 Bft)
19.10.2022 09:03 6,8 C 8,3 C 95 % 1027,5 hPa 0,0 l/m 3,6 km/h (1 Bft) N-NO 21 0 min 0,0 UV-I 36 W/m 6,1 C 6,8 C 6,4 km/h (2 Bft)
19.10.2022 09:06 6,8 C 8,3 C 95 % 1027,5 hPa 0,0 l/m 3,6 km/h (1 Bft) N-NO 24 0 min 0,0 UV-I 36 W/m 6,1 C 6,8 C 6,4 km/h (2 Bft)
19.10.2022 09:09 6,9 C 8,3 C 95 % 1027,5 hPa 0,0 l/m 4,7 km/h (1 Bft) N 360 0 min 0,0 UV-I 37 W/m 6,2 C 6,9 C 6,4 km/h (2 Bft)
19.10.2022 09:12 6,8 C 7,8 C 95 % 1027,5 hPa 0,0 l/m 5,9 km/h (2 Bft) N 355 0 min 0,0 UV-I 42 W/m 6,1 C 6,8 C 8,0 km/h (2 Bft)
19.10.2022 09:15 6,8 C 8,3 C 95 % 1027,4 hPa 0,0 l/m 4,7 km/h (1 Bft) N 11 0 min 0,0 UV-I 47 W/m 6,1 C 6,8 C 6,4 km/h (2 Bft)
19.10.2022 09:18 6,8 C 8,3 C 95 % 1027,4 hPa 0,0 l/m 2,0 km/h (1 Bft) N 9 0 min 0,0 UV-I 52 W/m 6,1 C 6,8 C 4,8 km/h (1 Bft)
19.10.2022 09:21 6,9 C 8,3 C 95 % 1027,4 hPa 0,0 l/m 4,1 km/h (1 Bft) N 5 0 min 0,0 UV-I 60 W/m 6,2 C 6,9 C 6,4 km/h (2 Bft)
19.10.2022 09:24 6,9 C 8,3 C 95 % 1027,4 hPa 0,0 l/m 3,9 km/h (1 Bft) N-NO 17 0 min 0,0 UV-I 55 W/m 6,2 C 6,9 C 8,0 km/h (2 Bft)
19.10.2022 09:27 7,0 C 8,9 C 95 % 1027,4 hPa 0,0 l/m 4,0 km/h (1 Bft) N-NO 16 0 min 0,0 UV-I 65 W/m 6,3 C 7,0 C 6,4 km/h (2 Bft)
19.10.2022 09:30 7,0 C 8,9 C 95 % 1027,3 hPa 0,0 l/m 4,7 km/h (1 Bft) N-NO 17 0 min 0,0 UV-I 73 W/m 6,3 C 7,0 C 6,4 km/h (2 Bft)
19.10.2022 09:33 7,1 C 8,9 C 95 % 1027,3 hPa 0,0 l/m 3,6 km/h (1 Bft) N-NO 17 0 min 0,0 UV-I 90 W/m 6,4 C 7,1 C 6,4 km/h (2 Bft)
19.10.2022 09:36 7,2 C 9,4 C 95 % 1027,4 hPa 0,0 l/m 6,8 km/h (2 Bft) N-NO 21 0 min 0,0 UV-I 76 W/m 6,5 C 6,9 C 12,9 km/h (3 Bft)
19.10.2022 09:39 7,2 C 9,4 C 95 % 1027,5 hPa 0,0 l/m 6,2 km/h (2 Bft) N-NO 16 0 min 0,0 UV-I 76 W/m 6,5 C 7,2 C 12,9 km/h (3 Bft)
19.10.2022 09:42 7,3 C 8,9 C 95 % 1027,4 hPa 0,0 l/m 5,4 km/h (1 Bft) N-NO 17 0 min 0,0 UV-I 99 W/m 6,6 C 7,3 C 9,7 km/h (2 Bft)
19.10.2022 09:45 7,3 C 8,9 C 95 % 1027,5 hPa 0,0 l/m 6,7 km/h (2 Bft) N-NW 341 0 min 0,0 UV-I 104 W/m 6,6 C 7,1 C 9,7 km/h (2 Bft)
19.10.2022 09:48 7,3 C 8,9 C 95 % 1027,5 hPa 0,0 l/m 7,7 km/h (2 Bft) N-NO 12 0 min 0,2 UV-I 91 W/m 6,6 C 6,2 C 11,3 km/h (2 Bft)
19.10.2022 09:51 7,3 C 9,4 C 95 % 1027,5 hPa 0,0 l/m 5,5 km/h (1 Bft) N-NO 12 0 min 0,5 UV-I 95 W/m 6,6 C 7,3 C 8,0 km/h (2 Bft)
19.10.2022 09:54 7,5 C 9,4 C 95 % 1027,5 hPa 0,0 l/m 5,5 km/h (1 Bft) N-NO 28 0 min 0,5 UV-I 106 W/m 6,8 C 7,5 C 8,0 km/h (2 Bft)
19.10.2022 09:57 7,6 C 10,0 C 95 % 1027,4 hPa 0,0 l/m 5,3 km/h (1 Bft) N-NO 17 0 min 0,5 UV-I 119 W/m 6,9 C 7,6 C 8,0 km/h (2 Bft)
19.10.2022 10:00 7,6 C 10,0 C 95 % 1027,5 hPa 0,0 l/m 7,4 km/h (2 Bft) N-NO 15 0 min 0,5 UV-I 118 W/m 6,9 C 6,8 C 12,9 km/h (3 Bft)
19.10.2022 10:03 7,7 C 10,0 C 95 % 1027,6 hPa 0,0 l/m 6,9 km/h (2 Bft) N-NO 16 0 min 0,5 UV-I 118 W/m 7,0 C 7,3 C 12,9 km/h (3 Bft)
19.10.2022 10:06 7,8 C 10,6 C 95 % 1027,6 hPa 0,0 l/m 7,3 km/h (2 Bft) N-NO 18 0 min 0,5 UV-I 130 W/m 7,0 C 7,1 C 14,5 km/h (3 Bft)
19.10.2022 10:09 7,9 C 10,6 C 95 % 1027,6 hPa 0,0 l/m 7,2 km/h (2 Bft) N-NO 19 0 min 0,6 UV-I 158 W/m 7,1 C 7,3 C 12,9 km/h (3 Bft)
19.10.2022 10:12 8,1 C 11,1 C 95 % 1027,6 hPa 0,0 l/m 8,1 km/h (2 Bft) N-NO 19 0 min 0,6 UV-I 158 W/m 7,3 C 6,8 C 14,5 km/h (3 Bft)
19.10.2022 10:15 8,0 C 11,1 C 95 % 1027,6 hPa 0,0 l/m 9,9 km/h (2 Bft) N-NO 15 0 min 0,6 UV-I 144 W/m 7,2 C 5,4 C 14,5 km/h (3 Bft)
19.10.2022 10:18 7,9 C 10,6 C 95 % 1027,6 hPa 0,0 l/m 9,8 km/h (2 Bft) N-NO 18 0 min 0,6 UV-I 141 W/m 7,1 C 5,4 C 14,5 km/h (3 Bft)
19.10.2022 10:21 8,0 C 11,1 C 95 % 1027,5 hPa 0,0 l/m 8,3 km/h (2 Bft) N 5 0 min 0,7 UV-I 144 W/m 7,2 C 6,5 C 12,9 km/h (3 Bft)
19.10.2022 10:24 8,1 C 11,1 C 95 % 1027,5 hPa 0,0 l/m 7,4 km/h (2 Bft) N 5 0 min 0,7 UV-I 145 W/m 7,3 C 7,3 C 12,9 km/h (3 Bft)
19.10.2022 10:27 8,1 C 11,1 C 95 % 1027,6 hPa 0,0 l/m 7,1 km/h (2 Bft) N-NO 19 0 min 0,7 UV-I 143 W/m 7,3 C 7,6 C 11,3 km/h (2 Bft)
19.10.2022 10:30 8,2 C 11,7 C 95 % 1027,3 hPa 0,0 l/m 7,9 km/h (2 Bft) N-NO 28 0 min 0,7 UV-I 161 W/m 7,4 C 7,0 C 12,9 km/h (3 Bft)
19.10.2022 10:33 8,3 C 11,7 C 95 % 1027,2 hPa 0,0 l/m 9,3 km/h (2 Bft) N 9 0 min 0,8 UV-I 163 W/m 7,5 C 6,2 C 16,1 km/h (3 Bft)
19.10.2022 10:36 8,3 C 11,7 C 95 % 1027,4 hPa 0,0 l/m 8,6 km/h (2 Bft) N-NO 30 0 min 0,8 UV-I 170 W/m 7,5 C 6,6 C 14,5 km/h (3 Bft)
19.10.2022 10:39 8,4 C 12,2 C 95 % 1027,3 hPa 0,0 l/m 9,8 km/h (2 Bft) N-NO 19 0 min 0,8 UV-I 183 W/m 7,6 C 6,0 C 14,5 km/h (3 Bft)
19.10.2022 10:42 8,4 C 11,7 C 95 % 1027,3 hPa 0,0 l/m 8,4 km/h (2 Bft) N-NW 339 0 min 0,8 UV-I 176 W/m 7,6 C 6,9 C 14,5 km/h (3 Bft)
19.10.2022 10:45 8,6 C 12,2 C 95 % 1027,3 hPa 0,0 l/m 8,8 km/h (2 Bft) N-NO 23 0 min 0,9 UV-I 197 W/m 7,8 C 6,8 C 14,5 km/h (3 Bft)
19.10.2022 10:48 8,6 C 12,8 C 95 % 1027,3 hPa 0,0 l/m 8,0 km/h (2 Bft) NO 49 0 min 0,9 UV-I 195 W/m 7,8 C 7,4 C 14,5 km/h (3 Bft)
19.10.2022 10:51 8,6 C 12,2 C 95 % 1027,3 hPa 0,0 l/m 8,2 km/h (2 Bft) N-NO 30 0 min 0,9 UV-I 198 W/m 7,8 C 7,2 C 12,9 km/h (3 Bft)
19.10.2022 10:54 8,7 C 12,2 C 96 % 1027,3 hPa 0,0 l/m 10,4 km/h (2 Bft) N-NO 23 0 min 0,9 UV-I 190 W/m 8,1 C 5,9 C 14,5 km/h (3 Bft)
19.10.2022 10:57 8,7 C 12,8 C 95 % 1027,2 hPa 0,0 l/m 12,2 km/h (2 Bft) N-NO 22 0 min 1,0 UV-I 201 W/m 7,9 C 4,9 C 17,7 km/h (3 Bft)
19.10.2022 11:00 8,8 C 12,8 C 96 % 1027,2 hPa 0,0 l/m 12,2 km/h (2 Bft) N-NO 24 0 min 0,9 UV-I 180 W/m 8,2 C 5,0 C 16,1 km/h (3 Bft)
19.10.2022 11:03 8,7 C 12,2 C 96 % 1027,1 hPa 0,0 l/m 14,3 km/h (3 Bft) NO 42 0 min 0,9 UV-I 170 W/m 8,1 C 3,9 C 17,7 km/h (3 Bft)
19.10.2022 11:06 8,7 C 12,2 C 95 % 1027,3 hPa 0,0 l/m 10,8 km/h (2 Bft) N-NO 32 0 min 0,9 UV-I 164 W/m 7,9 C 5,7 C 17,7 km/h (3 Bft)
19.10.2022 11:09 8,7 C 11,7 C 95 % 1027,3 hPa 0,0 l/m 11,0 km/h (2 Bft) N-NO 31 0 min 0,9 UV-I 160 W/m 7,9 C 5,6 C 17,7 km/h (3 Bft)
19.10.2022 11:12 8,9 C 12,2 C 95 % 1027,3 hPa 0,0 l/m 11,7 km/h (2 Bft) N-NO 32 0 min 0,8 UV-I 158 W/m 8,1 C 5,4 C 16,1 km/h (3 Bft)
19.10.2022 11:15 9,0 C 12,2 C 95 % 1027,3 hPa 0,0 l/m 12,2 km/h (2 Bft) N-NO 19 0 min 0,9 UV-I 151 W/m 8,2 C 5,3 C 14,5 km/h (3 Bft)
19.10.2022 11:18 9,1 C 12,2 C 95 % 1027,2 hPa 0,0 l/m 9,6 km/h (2 Bft) NO 41 0 min 0,8 UV-I 142 W/m 8,3 C 6,8 C 14,5 km/h (3 Bft)
19.10.2022 11:21 9,1 C 12,2 C 95 % 1027,2 hPa 0,0 l/m 8,6 km/h (2 Bft) N-NO 24 0 min 0,8 UV-I 146 W/m 8,3 C 7,5 C 16,1 km/h (3 Bft)
19.10.2022 11:24 9,1 C 12,2 C 96 % 1027,1 hPa 0,0 l/m 8,5 km/h (2 Bft) NO 44 0 min 0,8 UV-I 127 W/m 8,5 C 7,6 C 14,5 km/h (3 Bft)
19.10.2022 11:27 9,1 C 11,7 C 96 % 1027,1 hPa 0,0 l/m 9,4 km/h (2 Bft) NO 41 0 min 0,8 UV-I 136 W/m 8,5 C 7,0 C 14,5 km/h (3 Bft)
19.10.2022 11:30 9,2 C 12,2 C 96 % 1027,1 hPa 0,0 l/m 9,2 km/h (2 Bft) N 5 0 min 0,8 UV-I 141 W/m 8,6 C 7,2 C 14,5 km/h (3 Bft)
19.10.2022 11:33 9,4 C 12,2 C 95 % 1027,1 hPa 0,0 l/m 8,6 km/h (2 Bft) N-NO 28 0 min 0,8 UV-I 141 W/m 8,6 C 7,8 C 14,5 km/h (3 Bft)
19.10.2022 11:36 9,4 C 12,8 C 95 % 1027,0 hPa 0,0 l/m 10,2 km/h (2 Bft) N 5 0 min 0,9 UV-I 158 W/m 8,6 C 6,8 C 14,5 km/h (3 Bft)
19.10.2022 11:39 9,5 C 12,8 C 96 % 1027,1 hPa 0,0 l/m 11,5 km/h (2 Bft) N-NO 22 0 min 0,9 UV-I 158 W/m 8,9 C 6,2 C 16,1 km/h (3 Bft)
19.10.2022 11:42 9,6 C 12,8 C 96 % 1027,0 hPa 0,0 l/m 11,1 km/h (2 Bft) NO 38 0 min 0,9 UV-I 164 W/m 9,0 C 6,5 C 16,1 km/h (3 Bft)
19.10.2022 11:45 9,6 C 12,8 C 96 % 1027,1 hPa 0,0 l/m 10,5 km/h (2 Bft) N-NO 23 0 min 0,8 UV-I 151 W/m 9,0 C 6,9 C 16,1 km/h (3 Bft)
19.10.2022 11:48 9,6 C 12,8 C 95 % 1027,2 hPa 0,0 l/m 8,3 km/h (2 Bft) NO 42 0 min 0,8 UV-I 136 W/m 8,8 C 8,2 C 12,9 km/h (3 Bft)
19.10.2022 11:51 9,7 C 12,8 C 96 % 1027,2 hPa 0,0 l/m 8,0 km/h (2 Bft) NO 43 0 min 0,8 UV-I 135 W/m 9,1 C 8,5 C 11,3 km/h (2 Bft)
19.10.2022 11:54 9,8 C 12,8 C 96 % 1027,3 hPa 0,0 l/m 7,6 km/h (2 Bft) NO 44 0 min 0,8 UV-I 147 W/m 9,2 C 8,9 C 12,9 km/h (3 Bft)
19.10.2022 11:57 9,9 C 12,8 C 96 % 1027,2 hPa 0,0 l/m 9,6 km/h (2 Bft) NO 40 0 min 0,8 UV-I 152 W/m 9,3 C 7,7 C 16,1 km/h (3 Bft)
19.10.2022 12:00 9,8 C 12,8 C 96 % 1027,2 hPa 0,0 l/m 7,3 km/h (2 Bft) NO 46 0 min 0,8 UV-I 142 W/m 9,2 C 9,1 C 12,9 km/h (3 Bft)
19.10.2022 12:03 9,8 C 12,8 C 96 % 1027,3 hPa 0,0 l/m 8,2 km/h (2 Bft) N-NO 33 0 min 0,8 UV-I 128 W/m 9,2 C 8,5 C 12,9 km/h (3 Bft)
19.10.2022 12:09 10,1 C 13,3 C 96 % 1027,3 hPa 0,0 l/m 9,5 km/h (2 Bft) N 5 0 min 0,8 UV-I 145 W/m 9,5 C 8,0 C 16,1 km/h (3 Bft)
19.10.2022 12:12 10,2 C 13,3 C 96 % 1027,2 hPa 0,0 l/m 7,3 km/h (2 Bft) NO 51 0 min 0,8 UV-I 147 W/m 9,6 C 9,6 C 11,3 km/h (2 Bft)
19.10.2022 12:15 10,2 C 13,3 C 96 % 1027,2 hPa 0,0 l/m 8,5 km/h (2 Bft) NO 35 0 min 0,9 UV-I 155 W/m 9,6 C 8,7 C 14,5 km/h (3 Bft)
19.10.2022 12:18 10,3 C 13,3 C 96 % 1027,2 hPa 0,0 l/m 6,6 km/h (2 Bft) N-NO 24 0 min 0,9 UV-I 151 W/m 9,7 C 10,2 C 11,3 km/h (2 Bft)
19.10.2022 12:21 10,3 C 13,3 C 96 % 1027,2 hPa 0,0 l/m 8,4 km/h (2 Bft) N-NO 22 0 min 0,8 UV-I 140 W/m 9,7 C 8,9 C 12,9 km/h (3 Bft)
19.10.2022 12:24 10,4 C 13,3 C 96 % 1027,2 hPa 0,0 l/m 6,7 km/h (2 Bft) N-NO 30 0 min 0,8 UV-I 133 W/m 9,8 C 10,2 C 9,7 km/h (2 Bft)
19.10.2022 12:27 10,4 C 13,9 C 96 % 1027,2 hPa 0,0 l/m 5,6 km/h (1 Bft) NO 54 0 min 0,8 UV-I 130 W/m 9,8 C 10,4 C 8,0 km/h (2 Bft)
19.10.2022 12:30 10,5 C 13,9 C 96 % 1027,2 hPa 0,0 l/m 5,8 km/h (2 Bft) O-NO 57 0 min 0,9 UV-I 137 W/m 9,9 C 10,5 C 9,7 km/h (2 Bft)
19.10.2022 12:33 10,6 C 13,3 C 96 % 1027,2 hPa 0,0 l/m 4,0 km/h (1 Bft) O-NO 63 0 min 0,9 UV-I 142 W/m 10,0 C 10,6 C 6,4 km/h (2 Bft)
19.10.2022 12:36 10,8 C 13,9 C 96 % 1027,1 hPa 0,0 l/m 5,1 km/h (1 Bft) O-NO 75 0 min 1,0 UV-I 168 W/m 10,2 C 10,8 C 12,9 km/h (3 Bft)
19.10.2022 12:39 10,8 C 13,9 C 96 % 1027,1 hPa 0,0 l/m 5,9 km/h (2 Bft) NO 38 0 min 1,0 UV-I 157 W/m 10,2 C 10,8 C 11,3 km/h (2 Bft)
19.10.2022 12:42 10,8 C 13,9 C 96 % 1027,1 hPa 0,0 l/m 6,6 km/h (2 Bft) N-NO 31 0 min 1,0 UV-I 166 W/m 10,2 C 10,7 C 12,9 km/h (3 Bft)
19.10.2022 12:45 10,8 C 14,4 C 96 % 1026,9 hPa 0,0 l/m 7,3 km/h (2 Bft) NO 47 0 min 1,0 UV-I 181 W/m 10,2 C 10,2 C 11,3 km/h (2 Bft)
19.10.2022 12:48 10,9 C 14,4 C 96 % 1027,0 hPa 0,0 l/m 8,6 km/h (2 Bft) N-NO 30 0 min 1,1 UV-I 186 W/m 10,3 C 9,4 C 14,5 km/h (3 Bft)
19.10.2022 12:51 10,9 C 14,4 C 96 % 1026,9 hPa 0,0 l/m 9,5 km/h (2 Bft) N-NO 30 0 min 1,1 UV-I 174 W/m 10,3 C 8,9 C 14,5 km/h (3 Bft)
19.10.2022 12:54 10,9 C 14,4 C 96 % 1026,9 hPa 0,0 l/m 8,2 km/h (2 Bft) NO 35 0 min 1,0 UV-I 160 W/m 10,3 C 9,7 C 14,5 km/h (3 Bft)
19.10.2022 12:57 10,9 C 13,9 C 96 % 1026,9 hPa 0,0 l/m 8,8 km/h (2 Bft) NO 43 0 min 1,0 UV-I 145 W/m 10,3 C 9,3 C 12,9 km/h (3 Bft)
19.10.2022 13:00 11,1 C 14,4 C 96 % 1026,9 hPa 0,0 l/m 6,8 km/h (2 Bft) N-NO 23 0 min 1,0 UV-I 156 W/m 10,5 C 10,8 C 11,3 km/h (2 Bft)
19.10.2022 13:03 11,2 C 14,4 C 96 % 1026,9 hPa 0,0 l/m 7,2 km/h (2 Bft) NO 41 0 min 1,0 UV-I 182 W/m 10,6 C 10,6 C 12,9 km/h (3 Bft)
19.10.2022 13:06 11,2 C 15,0 C 96 % 1026,8 hPa 0,0 l/m 6,2 km/h (2 Bft) N-NO 17 0 min 1,2 UV-I 197 W/m 10,6 C 11,2 C 9,7 km/h (2 Bft)
19.10.2022 13:09 11,3 C 15,6 C 96 % 1026,8 hPa 0,0 l/m 7,8 km/h (2 Bft) NO 49 0 min 1,1 UV-I 178 W/m 10,7 C 10,3 C 12,9 km/h (3 Bft)
19.10.2022 13:12 11,3 C 15,0 C 96 % 1026,7 hPa 0,0 l/m 7,3 km/h (2 Bft) NO 48 0 min 1,1 UV-I 193 W/m 10,7 C 10,7 C 11,3 km/h (2 Bft)
19.10.2022 13:15 11,6 C 15,6 C 96 % 1026,6 hPa 0,0 l/m 6,2 km/h (2 Bft) O-NO 74 0 min 1,4 UV-I 219 W/m 11,0 C 11,6 C 12,9 km/h (3 Bft)
19.10.2022 13:18 11,6 C 15,0 C 96 % 1026,5 hPa 0,0 l/m 7,2 km/h (2 Bft) NO 48 0 min 1,3 UV-I 209 W/m 11,0 C 11,1 C 14,5 km/h (3 Bft)
19.10.2022 13:21 11,7 C 15,6 C 96 % 1026,5 hPa 0,0 l/m 5,6 km/h (1 Bft) N-NO 24 0 min 1,5 UV-I 268 W/m 11,1 C 11,7 C 12,9 km/h (3 Bft)
19.10.2022 13:24 11,8 C 16,1 C 96 % 1026,5 hPa 0,0 l/m 8,9 km/h (2 Bft) N-NO 22 0 min 1,5 UV-I 291 W/m 11,2 C 10,2 C 14,5 km/h (3 Bft)
19.10.2022 13:27 11,7 C 16,7 C 96 % 1026,4 hPa 0,0 l/m 10,7 km/h (2 Bft) NO 55 0 min 1,4 UV-I 274 W/m 11,1 C 9,1 C 17,7 km/h (3 Bft)
19.10.2022 13:30 11,6 C 16,1 C 96 % 1026,3 hPa 0,0 l/m 9,9 km/h (2 Bft) N-NO 28 0 min 1,3 UV-I 200 W/m 11,0 C 9,4 C 16,1 km/h (3 Bft)
19.10.2022 13:33 11,6 C 16,1 C 96 % 1026,3 hPa 0,0 l/m 11,0 km/h (2 Bft) NO 37 0 min 1,4 UV-I 224 W/m 11,0 C 8,8 C 16,1 km/h (3 Bft)
19.10.2022 13:36 11,7 C 16,1 C 96 % 1026,2 hPa 0,0 l/m 13,1 km/h (3 Bft) O-NO 71 0 min 1,5 UV-I 237 W/m 11,1 C 8,0 C 17,7 km/h (3 Bft)
19.10.2022 13:39 11,8 C 16,1 C 96 % 1026,2 hPa 0,0 l/m 10,3 km/h (2 Bft) NO 51 0 min 1,5 UV-I 247 W/m 11,2 C 9,4 C 20,9 km/h (4 Bft)
19.10.2022 13:42 11,6 C 16,1 C 96 % 1026,2 hPa 0,0 l/m 10,0 km/h (2 Bft) N-NO 15 0 min 1,3 UV-I 196 W/m 11,0 C 9,4 C 17,7 km/h (3 Bft)
19.10.2022 13:45 11,5 C 15,6 C 96 % 1026,2 hPa 0,0 l/m 12,4 km/h (3 Bft) N-NO 20 0 min 1,3 UV-I 194 W/m 10,9 C 8,1 C 19,3 km/h (3 Bft)
19.10.2022 13:48 11,4 C 15,0 C 95 % 1026,0 hPa 0,0 l/m 13,1 km/h (3 Bft) NO 41 0 min 1,3 UV-I 192 W/m 10,6 C 7,6 C 20,9 km/h (4 Bft)
19.10.2022 13:51 11,4 C 15,0 C 95 % 1025,9 hPa 0,0 l/m 8,8 km/h (2 Bft) O 90 0 min 1,3 UV-I 211 W/m 10,6 C 9,8 C 16,1 km/h (3 Bft)
19.10.2022 13:54 11,6 C 15,0 C 96 % 1025,9 hPa 0,0 l/m 6,1 km/h (2 Bft) NO 56 0 min 1,2 UV-I 210 W/m 11,0 C 11,6 C 12,9 km/h (3 Bft)
19.10.2022 13:57 11,8 C 15,0 C 95 % 1025,8 hPa 0,0 l/m 6,0 km/h (2 Bft) O-NO 66 0 min 1,3 UV-I 198 W/m 11,0 C 11,8 C 12,9 km/h (3 Bft)
19.10.2022 14:00 11,6 C 15,0 C 95 % 1025,7 hPa 0,0 l/m 11,0 km/h (2 Bft) O 88 0 min 1,3 UV-I 191 W/m 10,8 C 8,8 C 20,9 km/h (4 Bft)
19.10.2022 14:03 11,6 C 14,4 C 95 % 1025,8 hPa 0,0 l/m 7,1 km/h (2 Bft) NO 55 0 min 1,1 UV-I 168 W/m 10,8 C 11,1 C 14,5 km/h (3 Bft)
19.10.2022 14:06 11,7 C 15,0 C 95 % 1025,6 hPa 0,0 l/m 6,6 km/h (2 Bft) O-NO 65 0 min 1,3 UV-I 188 W/m 10,9 C 11,6 C 12,9 km/h (3 Bft)
19.10.2022 14:09 11,7 C 15,0 C 95 % 1025,6 hPa 0,0 l/m 10,6 km/h (2 Bft) O 81 0 min 1,3 UV-I 221 W/m 10,9 C 9,2 C 17,7 km/h (3 Bft)
19.10.2022 14:12 11,8 C 15,0 C 95 % 1025,6 hPa 0,0 l/m 5,7 km/h (1 Bft) O 98 0 min 1,3 UV-I 232 W/m 11,0 C 11,8 C 11,3 km/h (2 Bft)
19.10.2022 14:15 12,1 C 15,6 C 95 % 1025,6 hPa 0,0 l/m 4,8 km/h (1 Bft) O 86 0 min 1,3 UV-I 245 W/m 11,3 C 12,1 C 11,3 km/h (2 Bft)
19.10.2022 14:18 12,1 C 16,7 C 95 % 1025,4 hPa 0,0 l/m 6,9 km/h (2 Bft) NO 40 0 min 1,5 UV-I 249 W/m 11,3 C 11,8 C 12,9 km/h (3 Bft)
19.10.2022 14:21 12,1 C 17,8 C 95 % 1025,6 hPa 0,0 l/m 14,0 km/h (3 Bft) O-NO 65 0 min 1,6 UV-I 286 W/m 11,3 C 8,1 C 22,5 km/h (4 Bft)
19.10.2022 14:24 12,0 C 17,2 C 94 % 1025,4 hPa 0,0 l/m 12,0 km/h (2 Bft) O-SO 109 0 min 1,6 UV-I 273 W/m 11,1 C 8,8 C 19,3 km/h (3 Bft)
19.10.2022 14:27 12,1 C 18,3 C 95 % 1025,3 hPa 0,0 l/m 7,8 km/h (2 Bft) O 90 3 min 2,1 UV-I 324 W/m 11,3 C 11,2 C 14,5 km/h (3 Bft)
19.10.2022 14:30 12,7 C 20,0 C 95 % 1025,4 hPa 0,0 l/m 6,3 km/h (2 Bft) O 84 3 min 1,7 UV-I 380 W/m 11,9 C 12,7 C 14,5 km/h (3 Bft)
19.10.2022 14:33 12,7 C 19,4 C 94 % 1025,3 hPa 0,0 l/m 7,6 km/h (2 Bft) NO 35 3 min 1,6 UV-I 311 W/m 11,8 C 11,9 C 12,9 km/h (3 Bft)
19.10.2022 14:36 12,5 C 20,0 C 94 % 1025,3 hPa 0,0 l/m 10,2 km/h (2 Bft) O-NO 67 3 min 1,5 UV-I 329 W/m 11,6 C 10,3 C 24,1 km/h (4 Bft)
19.10.2022 14:39 12,3 C 19,4 C 93 % 1025,3 hPa 0,0 l/m 12,7 km/h (3 Bft) O-NO 65 3 min 1,7 UV-I 380 W/m 11,2 C 8,9 C 24,1 km/h (4 Bft)
19.10.2022 14:42 12,4 C 20,0 C 94 % 1025,2 hPa 0,0 l/m 9,5 km/h (2 Bft) O 86 0 min 1,6 UV-I 235 W/m 11,5 C 10,5 C 16,1 km/h (3 Bft)
19.10.2022 14:45 12,5 C 20,0 C 93 % 1025,1 hPa 0,0 l/m 8,0 km/h (2 Bft) O 99 3 min 1,8 UV-I 301 W/m 11,4 C 11,5 C 11,3 km/h (2 Bft)
19.10.2022 14:48 12,9 C 21,7 C 93 % 1025,0 hPa 0,0 l/m 5,5 km/h (1 Bft) O 90 3 min 1,9 UV-I 396 W/m 11,8 C 12,9 C 12,9 km/h (3 Bft)
19.10.2022 14:51 13,1 C 22,8 C 93 % 1024,9 hPa 0,0 l/m 8,7 km/h (2 Bft) O-NO 61 3 min 1,9 UV-I 403 W/m 12,0 C 11,7 C 17,7 km/h (3 Bft)
19.10.2022 14:54 13,2 C 23,9 C 92 % 1024,9 hPa 0,0 l/m 9,8 km/h (2 Bft) NO 48 3 min 1,9 UV-I 427 W/m 11,9 C 11,2 C 16,1 km/h (3 Bft)
19.10.2022 14:57 13,0 C 23,3 C 92 % 1024,9 hPa 0,0 l/m 13,2 km/h (3 Bft) N-NO 24 3 min 1,7 UV-I 357 W/m 11,7 C 9,5 C 19,3 km/h (3 Bft)
19.10.2022 15:00 12,9 C 23,3 C 92 % 1024,9 hPa 0,0 l/m 12,9 km/h (3 Bft) NO 39 3 min 1,7 UV-I 364 W/m 11,6 C 9,5 C 19,3 km/h (3 Bft)
19.10.2022 15:03 12,9 C 23,3 C 92 % 1024,9 hPa 0,0 l/m 13,0 km/h (3 Bft) N-NO 26 3 min 1,7 UV-I 381 W/m 11,6 C 9,4 C 19,3 km/h (3 Bft)
19.10.2022 15:06 13,1 C 22,8 C 92 % 1024,9 hPa 0,0 l/m 10,9 km/h (2 Bft) NO 35 3 min 1,7 UV-I 369 W/m 11,8 C 10,6 C 17,7 km/h (3 Bft)
19.10.2022 15:09 13,2 C 22,8 C 91 % 1024,8 hPa 0,2 l/m 10,7 km/h (2 Bft) N-NO 30 3 min 1,5 UV-I 371 W/m 11,8 C 10,8 C 16,1 km/h (3 Bft)
19.10.2022 15:12 13,3 C 21,1 C 91 % 1024,7 hPa 0,0 l/m 11,1 km/h (2 Bft) O-SO 110 0 min 1,4 UV-I 292 W/m 11,9 C 10,7 C 16,1 km/h (3 Bft)
19.10.2022 15:15 13,1 C 18,3 C 90 % 1024,8 hPa 0,0 l/m 11,4 km/h (2 Bft) NO 54 0 min 1,4 UV-I 272 W/m 11,5 C 10,4 C 17,7 km/h (3 Bft)
19.10.2022 15:18 13,0 C 17,2 C 89 % 1024,9 hPa 0,0 l/m 10,5 km/h (2 Bft) O 81 0 min 1,2 UV-I 213 W/m 11,2 C 10,7 C 17,7 km/h (3 Bft)
19.10.2022 15:21 13,2 C 18,3 C 90 % 1024,9 hPa 0,0 l/m 7,2 km/h (2 Bft) O-NO 63 0 min 1,3 UV-I 295 W/m 11,6 C 12,7 C 14,5 km/h (3 Bft)
19.10.2022 15:24 13,4 C 20,0 C 89 % 1024,8 hPa 0,0 l/m 7,4 km/h (2 Bft) O-NO 61 3 min 1,4 UV-I 363 W/m 11,6 C 12,8 C 14,5 km/h (3 Bft)
19.10.2022 15:27 13,4 C 19,4 C 88 % 1024,9 hPa 0,0 l/m 5,4 km/h (1 Bft) O-SO 102 0 min 1,1 UV-I 264 W/m 11,5 C 13,4 C 11,3 km/h (2 Bft)
19.10.2022 15:30 13,7 C 19,4 C 89 % 1024,8 hPa 0,0 l/m 4,4 km/h (1 Bft) O-NO 63 0 min 1,3 UV-I 297 W/m 11,9 C 13,7 C 16,1 km/h (3 Bft)
19.10.2022 15:33 13,7 C 18,3 C 87 % 1024,7 hPa 0,0 l/m 7,6 km/h (2 Bft) O-NO 60 0 min 1,2 UV-I 280 W/m 11,6 C 13,0 C 17,7 km/h (3 Bft)
19.10.2022 15:36 13,3 C 16,7 C 87 % 1024,7 hPa 0,0 l/m 14,4 km/h (3 Bft) O-SO 112 0 min 1,1 UV-I 204 W/m 11,2 C 9,4 C 24,1 km/h (4 Bft)
19.10.2022 15:39 13,3 C 16,1 C 88 % 1024,6 hPa 0,0 l/m 10,2 km/h (2 Bft) O 89 0 min 1,1 UV-I 227 W/m 11,4 C 11,1 C 14,5 km/h (3 Bft)
19.10.2022 15:42 13,3 C 15,6 C 88 % 1024,6 hPa 0,0 l/m 11,4 km/h (2 Bft) O 94 0 min 1,1 UV-I 229 W/m 11,4 C 10,6 C 20,9 km/h (4 Bft)
19.10.2022 15:45 13,3 C 16,1 C 87 % 1024,6 hPa 0,0 l/m 8,5 km/h (2 Bft) O 81 0 min 1,1 UV-I 218 W/m 11,2 C 12,0 C 17,7 km/h (3 Bft)
19.10.2022 15:48 13,3 C 15,6 C 87 % 1024,5 hPa 0,0 l/m 12,2 km/h (2 Bft) O 87 0 min 1,0 UV-I 213 W/m 11,2 C 10,2 C 20,9 km/h (4 Bft)
19.10.2022 15:51 13,3 C 15,6 C 88 % 1024,4 hPa 0,0 l/m 7,8 km/h (2 Bft) O-NO 57 0 min 1,1 UV-I 213 W/m 11,4 C 12,4 C 16,1 km/h (3 Bft)
19.10.2022 15:54 13,4 C 16,1 C 88 % 1024,5 hPa 0,0 l/m 5,0 km/h (1 Bft) O-NO 58 0 min 1,1 UV-I 212 W/m 11,5 C 13,4 C 16,1 km/h (3 Bft)
19.10.2022 15:57 13,3 C 16,1 C 87 % 1024,4 hPa 0,0 l/m 11,2 km/h (2 Bft) O 98 0 min 1,1 UV-I 206 W/m 11,2 C 10,7 C 16,1 km/h (3 Bft)
19.10.2022 16:00 13,3 C 15,6 C 87 % 1024,5 hPa 0,0 l/m 10,5 km/h (2 Bft) O 81 0 min 1,0 UV-I 191 W/m 11,2 C 11,0 C 16,1 km/h (3 Bft)
19.10.2022 16:03 13,2 C 15,0 C 87 % 1024,4 hPa 0,0 l/m 10,4 km/h (2 Bft) O-NO 60 0 min 1,0 UV-I 188 W/m 11,1 C 10,9 C 17,7 km/h (3 Bft)
19.10.2022 16:06 13,3 C 15,6 C 87 % 1024,4 hPa 0,0 l/m 7,5 km/h (2 Bft) O-NO 74 0 min 1,0 UV-I 192 W/m 11,2 C 12,6 C 12,9 km/h (3 Bft)
19.10.2022 16:09 13,3 C 16,1 C 87 % 1024,2 hPa 0,0 l/m 7,6 km/h (2 Bft) O-NO 63 0 min 1,0 UV-I 216 W/m 11,2 C 12,6 C 17,7 km/h (3 Bft)
19.10.2022 16:12 13,4 C 16,1 C 87 % 1024,4 hPa 0,0 l/m 9,3 km/h (2 Bft) O-NO 75 0 min 1,0 UV-I 209 W/m 11,3 C 11,7 C 16,1 km/h (3 Bft)
19.10.2022 16:15 13,4 C 16,1 C 87 % 1024,5 hPa 0,0 l/m 5,1 km/h (1 Bft) O 98 0 min 0,9 UV-I 178 W/m 11,3 C 13,4 C 9,7 km/h (2 Bft)
19.10.2022 16:18 13,3 C 15,6 C 86 % 1024,4 hPa 0,0 l/m 7,7 km/h (2 Bft) O 96 0 min 0,9 UV-I 188 W/m 11,0 C 12,5 C 16,1 km/h (3 Bft)
19.10.2022 16:21 13,3 C 15,0 C 87 % 1024,5 hPa 0,0 l/m 8,7 km/h (2 Bft) O-NO 71 0 min 0,9 UV-I 197 W/m 11,2 C 11,9 C 17,7 km/h (3 Bft)
19.10.2022 16:24 13,3 C 15,6 C 87 % 1024,4 hPa 0,0 l/m 9,5 km/h (2 Bft) SO 139 0 min 0,8 UV-I 183 W/m 11,2 C 11,5 C 17,7 km/h (3 Bft)
19.10.2022 16:27 13,4 C 15,6 C 87 % 1024,3 hPa 0,0 l/m 3,9 km/h (1 Bft) N 355 0 min 0,7 UV-I 185 W/m 11,3 C 13,4 C 8,0 km/h (2 Bft)
19.10.2022 16:30 13,6 C 16,7 C 87 % 1024,2 hPa 0,0 l/m 5,4 km/h (1 Bft) NO 49 0 min 0,7 UV-I 211 W/m 11,5 C 13,6 C 9,7 km/h (2 Bft)
19.10.2022 16:33 13,6 C 16,1 C 87 % 1024,1 hPa 0,0 l/m 12,0 km/h (2 Bft) O-NO 69 0 min 0,8 UV-I 210 W/m 11,5 C 10,7 C 19,3 km/h (3 Bft)
19.10.2022 16:36 13,6 C 16,7 C 87 % 1024,2 hPa 0,0 l/m 10,3 km/h (2 Bft) O-NO 62 0 min 0,9 UV-I 286 W/m 11,5 C 11,4 C 17,7 km/h (3 Bft)
19.10.2022 16:39 13,6 C 16,7 C 87 % 1024,2 hPa 0,0 l/m 12,8 km/h (3 Bft) O 80 0 min 0,8 UV-I 264 W/m 11,5 C 10,3 C 19,3 km/h (3 Bft)
19.10.2022 16:42 13,7 C 17,8 C 86 % 1024,1 hPa 0,0 l/m 8,4 km/h (2 Bft) O-NO 65 0 min 0,7 UV-I 218 W/m 11,4 C 12,5 C 17,7 km/h (3 Bft)
19.10.2022 16:45 13,4 C 16,1 C 86 % 1024,1 hPa 0,0 l/m 15,5 km/h (3 Bft) O 87 0 min 0,6 UV-I 143 W/m 11,1 C 9,1 C 20,9 km/h (4 Bft)
19.10.2022 16:48 13,3 C 15,6 C 87 % 1024,1 hPa 0,0 l/m 9,2 km/h (2 Bft) NO 39 0 min 0,6 UV-I 126 W/m 11,2 C 11,7 C 16,1 km/h (3 Bft)
19.10.2022 16:51 13,3 C 15,0 C 87 % 1024,1 hPa 0,0 l/m 8,4 km/h (2 Bft) NO 53 0 min 0,5 UV-I 110 W/m 11,2 C 12,1 C 16,1 km/h (3 Bft)
19.10.2022 16:54 13,2 C 14,4 C 87 % 1024,0 hPa 0,0 l/m 12,4 km/h (3 Bft) O 93 0 min 0,5 UV-I 111 W/m 11,1 C 10,0 C 17,7 km/h (3 Bft)
19.10.2022 16:57 13,2 C 13,9 C 87 % 1024,0 hPa 0,0 l/m 11,2 km/h (2 Bft) O-NO 67 0 min 0,1 UV-I 84 W/m 11,1 C 10,6 C 19,3 km/h (3 Bft)
19.10.2022 17:00 13,2 C 13,9 C 88 % 1024,0 hPa 0,0 l/m 10,4 km/h (2 Bft) O 86 0 min 0,0 UV-I 82 W/m 11,3 C 10,9 C 17,7 km/h (3 Bft)
19.10.2022 17:03 13,2 C 14,4 C 88 % 1023,9 hPa 0,0 l/m 8,0 km/h (2 Bft) O-NO 64 0 min 0,0 UV-I 91 W/m 11,3 C 12,2 C 12,9 km/h (3 Bft)
19.10.2022 17:06 13,3 C 14,4 C 88 % 1023,9 hPa 0,0 l/m 6,8 km/h (2 Bft) O-NO 61 0 min 0,0 UV-I 82 W/m 11,4 C 13,1 C 14,5 km/h (3 Bft)
19.10.2022 17:09 13,2 C 13,9 C 88 % 1023,9 hPa 0,0 l/m 12,2 km/h (2 Bft) N-NO 25 0 min 0,0 UV-I 57 W/m 11,3 C 10,1 C 19,3 km/h (3 Bft)
19.10.2022 17:12 13,1 C 13,3 C 88 % 1023,9 hPa 0,0 l/m 11,0 km/h (2 Bft) N-NO 15 0 min 0,0 UV-I 37 W/m 11,2 C 10,5 C 17,7 km/h (3 Bft)
19.10.2022 17:15 13,1 C 13,3 C 88 % 1023,9 hPa 0,0 l/m 10,0 km/h (2 Bft) NO 44 0 min 0,0 UV-I 38 W/m 11,2 C 11,0 C 14,5 km/h (3 Bft)
19.10.2022 17:18 12,9 C 13,3 C 88 % 1023,9 hPa 0,0 l/m 8,8 km/h (2 Bft) NO 45 0 min 0,0 UV-I 29 W/m 11,0 C 11,4 C 16,1 km/h (3 Bft)
19.10.2022 17:21 12,9 C 13,3 C 89 % 1023,8 hPa 0,0 l/m 8,6 km/h (2 Bft) O 90 0 min 0,0 UV-I 32 W/m 11,1 C 11,5 C 16,1 km/h (3 Bft)
19.10.2022 17:24 12,9 C 13,3 C 89 % 1023,8 hPa 0,0 l/m 6,1 km/h (2 Bft) O-NO 73 0 min 0,0 UV-I 40 W/m 11,1 C 12,9 C 9,7 km/h (2 Bft)
19.10.2022 17:27 12,9 C 13,3 C 89 % 1023,9 hPa 0,0 l/m 6,6 km/h (2 Bft) O-NO 59 0 min 0,0 UV-I 42 W/m 11,1 C 12,8 C 12,9 km/h (3 Bft)
19.10.2022 17:30 12,8 C 12,8 C 89 % 1023,8 hPa 0,0 l/m 6,9 km/h (2 Bft) O 87 0 min 0,0 UV-I 38 W/m 11,0 C 12,5 C 16,1 km/h (3 Bft)
19.10.2022 17:33 12,8 C 12,8 C 89 % 1023,8 hPa 0,0 l/m 11,0 km/h (2 Bft) N-NO 30 0 min 0,0 UV-I 31 W/m 11,0 C 10,2 C 17,7 km/h (3 Bft)
19.10.2022 17:36 12,7 C 12,8 C 89 % 1023,7 hPa 0,0 l/m 7,0 km/h (2 Bft) O-NO 75 0 min 0,0 UV-I 31 W/m 10,9 C 12,3 C 14,5 km/h (3 Bft)
19.10.2022 17:39 12,7 C 12,8 C 89 % 1023,7 hPa 0,0 l/m 5,0 km/h (1 Bft) NO 47 0 min 0,0 UV-I 26 W/m 10,9 C 12,7 C 8,0 km/h (2 Bft)
19.10.2022 17:42 12,7 C 12,8 C 89 % 1023,6 hPa 0,0 l/m 5,0 km/h (1 Bft) O-NO 59 0 min 0,0 UV-I 24 W/m 10,9 C 12,7 C 12,9 km/h (3 Bft)
19.10.2022 17:45 12,7 C 12,8 C 89 % 1023,6 hPa 0,0 l/m 8,0 km/h (2 Bft) NO 38 0 min 0,0 UV-I 21 W/m 10,9 C 11,7 C 14,5 km/h (3 Bft)
19.10.2022 17:48 12,7 C 12,8 C 89 % 1023,6 hPa 0,0 l/m 7,6 km/h (2 Bft) O-NO 57 0 min 0,0 UV-I 19 W/m 10,9 C 11,9 C 19,3 km/h (3 Bft)
19.10.2022 17:51 12,6 C 12,8 C 89 % 1023,5 hPa 0,0 l/m 12,3 km/h (3 Bft) O-NO 59 0 min 0,0 UV-I 18 W/m 10,8 C 9,4 C 19,3 km/h (3 Bft)
19.10.2022 17:54 12,6 C 12,2 C 89 % 1023,5 hPa 0,0 l/m 5,7 km/h (1 Bft) O 81 0 min 0,0 UV-I 16 W/m 10,8 C 12,6 C 11,3 km/h (2 Bft)
19.10.2022 17:57 12,6 C 12,2 C 89 % 1023,5 hPa 0,0 l/m 7,2 km/h (2 Bft) NO 51 0 min 0,0 UV-I 15 W/m 10,8 C 12,1 C 16,1 km/h (3 Bft)
19.10.2022 18:00 12,6 C 12,2 C 89 % 1023,5 hPa 0,0 l/m 6,0 km/h (2 Bft) O 85 0 min 0,0 UV-I 14 W/m 10,8 C 12,6 C 12,9 km/h (3 Bft)
19.10.2022 18:03 12,6 C 12,2 C 89 % 1023,6 hPa 0,0 l/m 10,1 km/h (2 Bft) O 86 0 min 0,0 UV-I 12 W/m 10,8 C 10,4 C 19,3 km/h (3 Bft)
19.10.2022 18:06 12,6 C 12,2 C 89 % 1023,5 hPa 0,0 l/m 8,0 km/h (2 Bft) O 88 0 min 0,0 UV-I 12 W/m 10,8 C 11,6 C 12,9 km/h (3 Bft)
19.10.2022 18:09 12,6 C 12,2 C 89 % 1023,5 hPa 0,0 l/m 7,2 km/h (2 Bft) O-NO 68 0 min 0,0 UV-I 12 W/m 10,8 C 12,1 C 14,5 km/h (3 Bft)
19.10.2022 18:12 12,6 C 12,2 C 89 % 1023,4 hPa 0,0 l/m 11,9 km/h (2 Bft) O 82 0 min 0,0 UV-I 11 W/m 10,8 C 9,6 C 19,3 km/h (3 Bft)
19.10.2022 18:15 12,6 C 12,2 C 89 % 1023,4 hPa 0,0 l/m 12,5 km/h (3 Bft) O-NO 65 0 min 0,0 UV-I 9 W/m 10,8 C 9,3 C 22,5 km/h (4 Bft)
19.10.2022 18:18 12,5 C 12,2 C 89 % 1023,4 hPa 0,0 l/m 8,8 km/h (2 Bft) NO 51 0 min 0,0 UV-I 7 W/m 10,7 C 11,0 C 16,1 km/h (3 Bft)
19.10.2022 18:21 12,4 C 12,2 C 89 % 1023,3 hPa 0,0 l/m 12,6 km/h (3 Bft) O 89 0 min 0,0 UV-I 5 W/m 10,6 C 9,0 C 20,9 km/h (4 Bft)
19.10.2022 18:24 12,4 C 11,7 C 89 % 1023,3 hPa 0,0 l/m 8,2 km/h (2 Bft) O 80 0 min 0,0 UV-I 4 W/m 10,6 C 11,3 C 14,5 km/h (3 Bft)
19.10.2022 18:27 12,4 C 11,7 C 89 % 1023,2 hPa 0,0 l/m 13,1 km/h (3 Bft) O 80 0 min 0,0 UV-I 0 W/m 10,6 C 8,8 C 19,3 km/h (3 Bft)
19.10.2022 18:30 12,4 C 11,7 C 89 % 1023,2 hPa 0,0 l/m 12,1 km/h (2 Bft) NO 36 0 min 0,0 UV-I 0 W/m 10,6 C 9,2 C 17,7 km/h (3 Bft)
19.10.2022 18:33 12,4 C 11,7 C 90 % 1023,1 hPa 0,0 l/m 9,5 km/h (2 Bft) O-NO 70 0 min 0,0 UV-I 0 W/m 10,8 C 10,5 C 16,1 km/h (3 Bft)
19.10.2022 18:36 12,4 C 11,7 C 90 % 1023,2 hPa 0,0 l/m 7,8 km/h (2 Bft) O 97 0 min 0,0 UV-I 0 W/m 10,8 C 11,5 C 14,5 km/h (3 Bft)
19.10.2022 18:39 12,3 C 11,7 C 90 % 1023,2 hPa 0,0 l/m 6,1 km/h (2 Bft) O-NO 69 0 min 0,0 UV-I 0 W/m 10,7 C 12,3 C 14,5 km/h (3 Bft)
19.10.2022 18:42 12,3 C 11,7 C 90 % 1023,1 hPa 0,0 l/m 7,1 km/h (2 Bft) O 80 0 min 0,0 UV-I 0 W/m 10,7 C 11,8 C 12,9 km/h (3 Bft)
19.10.2022 18:45 12,3 C 11,7 C 90 % 1023,1 hPa 0,0 l/m 5,0 km/h (1 Bft) O-SO 123 0 min 0,0 UV-I 0 W/m 10,7 C 12,3 C 8,0 km/h (2 Bft)
19.10.2022 18:48 12,3 C 11,7 C 90 % 1023,1 hPa 0,0 l/m 8,5 km/h (2 Bft) O 80 0 min 0,0 UV-I 0 W/m 10,7 C 11,0 C 16,1 km/h (3 Bft)
19.10.2022 18:51 12,3 C 11,7 C 90 % 1023,1 hPa 0,0 l/m 7,4 km/h (2 Bft) O 92 0 min 0,0 UV-I 0 W/m 10,7 C 11,6 C 14,5 km/h (3 Bft)
19.10.2022 18:54 12,3 C 11,7 C 90 % 1023,1 hPa 0,0 l/m 7,6 km/h (2 Bft) O 87 0 min 0,0 UV-I 0 W/m 10,7 C 11,5 C 12,9 km/h (3 Bft)
19.10.2022 18:57 12,2 C 11,7 C 90 % 1023,1 hPa 0,0 l/m 7,6 km/h (2 Bft) SO 138 0 min 0,0 UV-I 0 W/m 10,6 C 11,4 C 12,9 km/h (3 Bft)
19.10.2022 19:00 12,2 C 11,7 C 89 % 1023,1 hPa 0,0 l/m 11,2 km/h (2 Bft) O 87 0 min 0,0 UV-I 0 W/m 10,4 C 9,4 C 22,5 km/h (4 Bft)
19.10.2022 19:03 12,2 C 11,7 C 89 % 1023,1 hPa 0,0 l/m 5,8 km/h (2 Bft) O 87 0 min 0,0 UV-I 0 W/m 10,4 C 12,2 C 14,5 km/h (3 Bft)
19.10.2022 19:06 12,2 C 11,7 C 89 % 1023,0 hPa 0,0 l/m 11,4 km/h (2 Bft) O-SO 118 0 min 0,0 UV-I 0 W/m 10,4 C 9,3 C 19,3 km/h (3 Bft)
19.10.2022 19:09 12,2 C 11,7 C 89 % 1023,1 hPa 0,0 l/m 9,2 km/h (2 Bft) O 83 0 min 0,0 UV-I 0 W/m 10,4 C 10,5 C 17,7 km/h (3 Bft)
19.10.2022 19:12 12,2 C 11,7 C 89 % 1023,1 hPa 0,0 l/m 7,4 km/h (2 Bft) O-SO 121 0 min 0,0 UV-I 0 W/m 10,4 C 11,5 C 16,1 km/h (3 Bft)
19.10.2022 19:15 12,2 C 11,7 C 89 % 1023,1 hPa 0,0 l/m 7,1 km/h (2 Bft) O 92 0 min 0,0 UV-I 0 W/m 10,4 C 11,7 C 17,7 km/h (3 Bft)
19.10.2022 19:18 12,1 C 11,7 C 89 % 1023,1 hPa 0,0 l/m 13,3 km/h (3 Bft) O-NO 61 0 min 0,0 UV-I 0 W/m 10,3 C 8,4 C 24,1 km/h (4 Bft)
19.10.2022 19:21 12,1 C 11,7 C 90 % 1023,1 hPa 0,0 l/m 12,1 km/h (2 Bft) O 79 0 min 0,0 UV-I 0 W/m 10,5 C 8,9 C 20,9 km/h (4 Bft)
19.10.2022 19:24 12,1 C 11,7 C 90 % 1023,1 hPa 0,0 l/m 12,2 km/h (2 Bft) O-SO 102 0 min 0,0 UV-I 0 W/m 10,5 C 8,8 C 20,9 km/h (4 Bft)
19.10.2022 19:27 12,1 C 11,7 C 90 % 1023,1 hPa 0,0 l/m 13,6 km/h (3 Bft) O 92 0 min 0,0 UV-I 0 W/m 10,5 C 8,2 C 20,9 km/h (4 Bft)
19.10.2022 19:30 12,1 C 11,7 C 90 % 1023,1 hPa 0,0 l/m 10,4 km/h (2 Bft) O-NO 67 0 min 0,0 UV-I 0 W/m 10,5 C 9,7 C 16,1 km/h (3 Bft)
19.10.2022 19:33 12,0 C 11,7 C 90 % 1023,1 hPa 0,0 l/m 10,6 km/h (2 Bft) O 101 0 min 0,0 UV-I 0 W/m 10,4 C 9,5 C 17,7 km/h (3 Bft)
19.10.2022 19:36 12,0 C 11,7 C 90 % 1023,1 hPa 0,0 l/m 10,3 km/h (2 Bft) O-NO 74 0 min 0,0 UV-I 0 W/m 10,4 C 9,6 C 17,7 km/h (3 Bft)
19.10.2022 19:39 12,0 C 11,7 C 90 % 1023,2 hPa 0,0 l/m 3,7 km/h (1 Bft) O 84 0 min 0,0 UV-I 0 W/m 10,4 C 12,0 C 6,4 km/h (2 Bft)
19.10.2022 19:42 12,0 C 11,7 C 90 % 1023,2 hPa 0,0 l/m 7,3 km/h (2 Bft) O-NO 69 0 min 0,0 UV-I 0 W/m 10,4 C 11,4 C 12,9 km/h (3 Bft)
19.10.2022 19:45 11,9 C 11,7 C 90 % 1023,0 hPa 0,0 l/m 5,8 km/h (2 Bft) O 84 0 min 0,0 UV-I 0 W/m 10,3 C 11,9 C 12,9 km/h (3 Bft)
19.10.2022 19:48 11,9 C 11,7 C 90 % 1022,9 hPa 0,0 l/m 7,5 km/h (2 Bft) O-NO 76 0 min 0,0 UV-I 0 W/m 10,3 C 11,2 C 16,1 km/h (3 Bft)
19.10.2022 19:51 11,9 C 11,7 C 90 % 1022,9 hPa 0,0 l/m 7,4 km/h (2 Bft) O-NO 74 0 min 0,0 UV-I 0 W/m 10,3 C 11,2 C 16,1 km/h (3 Bft)
19.10.2022 19:54 11,9 C 11,7 C 90 % 1022,9 hPa 0,0 l/m 10,4 km/h (2 Bft) O-NO 63 0 min 0,0 UV-I 0 W/m 10,3 C 9,5 C 19,3 km/h (3 Bft)
19.10.2022 19:57 11,8 C 11,7 C 90 % 1023,0 hPa 0,0 l/m 7,0 km/h (2 Bft) O 88 0 min 0,0 UV-I 0 W/m 10,2 C 11,4 C 16,1 km/h (3 Bft)
19.10.2022 20:00 11,8 C 11,1 C 90 % 1022,9 hPa 0,0 l/m 5,2 km/h (1 Bft) O 86 0 min 0,0 UV-I 0 W/m 10,2 C 11,8 C 8,0 km/h (2 Bft)
19.10.2022 20:03 11,8 C 11,1 C 90 % 1023,0 hPa 0,0 l/m 9,3 km/h (2 Bft) O-SO 108 0 min 0,0 UV-I 0 W/m 10,2 C 10,0 C 16,1 km/h (3 Bft)
19.10.2022 20:06 11,8 C 11,1 C 90 % 1022,9 hPa 0,0 l/m 8,3 km/h (2 Bft) O 79 0 min 0,0 UV-I 0 W/m 10,2 C 10,6 C 14,5 km/h (3 Bft)
19.10.2022 20:09 11,8 C 11,1 C 90 % 1022,9 hPa 0,0 l/m 7,0 km/h (2 Bft) O 88 0 min 0,0 UV-I 0 W/m 10,2 C 11,4 C 12,9 km/h (3 Bft)
19.10.2022 20:12 11,8 C 11,1 C 90 % 1022,9 hPa 0,0 l/m 3,9 km/h (1 Bft) O-NO 65 0 min 0,0 UV-I 0 W/m 10,2 C 11,8 C 6,4 km/h (2 Bft)
19.10.2022 20:15 11,8 C 11,1 C 90 % 1022,9 hPa 0,0 l/m 6,7 km/h (2 Bft) O 94 0 min 0,0 UV-I 0 W/m 10,2 C 11,6 C 11,3 km/h (2 Bft)
19.10.2022 20:18 11,7 C 11,1 C 90 % 1022,9 hPa 0,0 l/m 11,1 km/h (2 Bft) O 85 0 min 0,0 UV-I 0 W/m 10,1 C 8,9 C 20,9 km/h (4 Bft)
19.10.2022 20:21 11,7 C 11,1 C 90 % 1022,9 hPa 0,0 l/m 10,8 km/h (2 Bft) O 90 0 min 0,0 UV-I 0 W/m 10,1 C 9,1 C 20,9 km/h (4 Bft)
19.10.2022 20:24 11,6 C 11,1 C 90 % 1022,8 hPa 0,0 l/m 12,2 km/h (2 Bft) O 90 0 min 0,0 UV-I 0 W/m 10,0 C 8,3 C 16,1 km/h (3 Bft)
19.10.2022 20:27 11,6 C 11,1 C 90 % 1022,8 hPa 0,0 l/m 10,5 km/h (2 Bft) O 90 0 min 0,0 UV-I 0 W/m 10,0 C 9,1 C 20,9 km/h (4 Bft)
19.10.2022 20:30 11,5 C 11,1 C 90 % 1022,9 hPa 0,0 l/m 17,3 km/h (3 Bft) O-SO 114 0 min 0,0 UV-I 0 W/m 9,9 C 6,1 C 24,1 km/h (4 Bft)
19.10.2022 20:33 11,4 C 11,1 C 90 % 1022,9 hPa 0,0 l/m 12,6 km/h (3 Bft) O 86 0 min 0,0 UV-I 0 W/m 9,8 C 7,8 C 20,9 km/h (4 Bft)
19.10.2022 20:36 11,4 C 11,1 C 90 % 1023,0 hPa 0,0 l/m 11,1 km/h (2 Bft) O-SO 111 0 min 0,0 UV-I 0 W/m 9,8 C 8,6 C 20,9 km/h (4 Bft)
19.10.2022 20:39 11,4 C 11,1 C 90 % 1022,9 hPa 0,0 l/m 7,8 km/h (2 Bft) O-SO 109 0 min 0,0 UV-I 0 W/m 9,8 C 10,5 C 14,5 km/h (3 Bft)
19.10.2022 20:42 11,4 C 11,1 C 90 % 1022,9 hPa 0,0 l/m 10,8 km/h (2 Bft) SO 133 0 min 0,0 UV-I 0 W/m 9,8 C 8,7 C 20,9 km/h (4 Bft)
19.10.2022 20:45 11,4 C 11,1 C 90 % 1022,8 hPa 0,0 l/m 11,0 km/h (2 Bft) SO 139 0 min 0,0 UV-I 0 W/m 9,8 C 8,6 C 20,9 km/h (4 Bft)
19.10.2022 20:48 11,4 C 11,1 C 90 % 1022,7 hPa 0,0 l/m 10,1 km/h (2 Bft) SO 136 0 min 0,0 UV-I 0 W/m 9,8 C 9,1 C 17,7 km/h (3 Bft)
19.10.2022 20:51 11,3 C 11,1 C 90 % 1022,6 hPa 0,0 l/m 8,6 km/h (2 Bft) O-SO 113 0 min 0,0 UV-I 0 W/m 9,7 C 9,8 C 14,5 km/h (3 Bft)
19.10.2022 20:54 11,3 C 11,1 C 90 % 1022,6 hPa 0,0 l/m 8,2 km/h (2 Bft) O 80 0 min 0,0 UV-I 0 W/m 9,7 C 10,1 C 16,1 km/h (3 Bft)
19.10.2022 20:57 11,3 C 11,1 C 90 % 1022,5 hPa 0,0 l/m 7,1 km/h (2 Bft) O-NO 69 0 min 0,0 UV-I 0 W/m 9,7 C 10,8 C 14,5 km/h (3 Bft)
19.10.2022 21:00 11,3 C 11,1 C 90 % 1022,6 hPa 0,0 l/m 10,9 km/h (2 Bft) O-SO 107 0 min 0,0 UV-I 0 W/m 9,7 C 8,6 C 20,9 km/h (4 Bft)
19.10.2022 21:03 11,3 C 11,1 C 91 % 1022,6 hPa 0,0 l/m 8,6 km/h (2 Bft) O-SO 117 0 min 0,0 UV-I 0 W/m 9,9 C 9,8 C 19,3 km/h (3 Bft)
19.10.2022 21:06 11,3 C 11,1 C 91 % 1022,6 hPa 0,0 l/m 8,0 km/h (2 Bft) O-SO 105 0 min 0,0 UV-I 0 W/m 9,9 C 10,2 C 16,1 km/h (3 Bft)
19.10.2022 21:09 11,2 C 11,1 C 91 % 1022,4 hPa 0,0 l/m 9,2 km/h (2 Bft) O 84 0 min 0,0 UV-I 0 W/m 9,8 C 9,4 C 14,5 km/h (3 Bft)
19.10.2022 21:12 11,2 C 10,6 C 90 % 1022,4 hPa 0,0 l/m 9,4 km/h (2 Bft) O-NO 69 0 min 0,0 UV-I 0 W/m 9,6 C 9,3 C 17,7 km/h (3 Bft)
19.10.2022 21:15 11,2 C 10,6 C 90 % 1022,4 hPa 0,0 l/m 10,6 km/h (2 Bft) O-SO 113 0 min 0,0 UV-I 0 W/m 9,6 C 8,6 C 19,3 km/h (3 Bft)
19.10.2022 21:18 11,2 C 10,6 C 90 % 1022,3 hPa 0,0 l/m 5,7 km/h (1 Bft) O 86 0 min 0,0 UV-I 0 W/m 9,6 C 11,2 C 16,1 km/h (3 Bft)
19.10.2022 21:21 11,2 C 10,6 C 90 % 1022,2 hPa 0,0 l/m 10,1 km/h (2 Bft) O-NO 78 0 min 0,0 UV-I 0 W/m 9,6 C 8,9 C 16,1 km/h (3 Bft)
19.10.2022 21:24 11,2 C 10,6 C 90 % 1022,3 hPa 0,0 l/m 6,2 km/h (2 Bft) O-SO 105 0 min 0,0 UV-I 0 W/m 9,6 C 11,2 C 11,3 km/h (2 Bft)
19.10.2022 21:27 11,2 C 10,6 C 90 % 1022,2 hPa 0,0 l/m 8,5 km/h (2 Bft) O-NO 75 0 min 0,0 UV-I 0 W/m 9,6 C 9,8 C 16,1 km/h (3 Bft)
19.10.2022 21:30 11,2 C 10,6 C 90 % 1022,1 hPa 0,0 l/m 6,5 km/h (2 Bft) O 79 0 min 0,0 UV-I 0 W/m 9,6 C 11,2 C 12,9 km/h (3 Bft)
19.10.2022 21:33 11,1 C 10,6 C 90 % 1022,1 hPa 0,0 l/m 4,5 km/h (1 Bft) O-SO 123 0 min 0,0 UV-I 0 W/m 9,5 C 11,1 C 6,4 km/h (2 Bft)
19.10.2022 21:36 11,1 C 10,6 C 90 % 1022,1 hPa 0,0 l/m 9,0 km/h (2 Bft) SO 138 0 min 0,0 UV-I 0 W/m 9,5 C 9,4 C 14,5 km/h (3 Bft)
19.10.2022 21:39 11,1 C 10,6 C 90 % 1022,1 hPa 0,0 l/m 7,0 km/h (2 Bft) O 79 0 min 0,0 UV-I 0 W/m 9,5 C 10,7 C 11,3 km/h (2 Bft)
19.10.2022 21:42 11,1 C 10,6 C 90 % 1021,9 hPa 0,0 l/m 6,2 km/h (2 Bft) O-SO 117 0 min 0,0 UV-I 0 W/m 9,5 C 11,1 C 11,3 km/h (2 Bft)
19.10.2022 21:45 11,1 C 10,6 C 90 % 1021,9 hPa 0,0 l/m 7,7 km/h (2 Bft) O-SO 121 0 min 0,0 UV-I 0 W/m 9,5 C 10,2 C 17,7 km/h (3 Bft)
19.10.2022 21:48 11,1 C 10,6 C 90 % 1021,8 hPa 0,0 l/m 10,4 km/h (2 Bft) O 91 0 min 0,0 UV-I 0 W/m 9,5 C 8,6 C 20,9 km/h (4 Bft)
19.10.2022 21:51 11,1 C 10,6 C 90 % 1021,9 hPa 0,0 l/m 8,8 km/h (2 Bft) SO 142 0 min 0,0 UV-I 0 W/m 9,5 C 9,5 C 16,1 km/h (3 Bft)
19.10.2022 21:54 11,1 C 10,6 C 90 % 1021,9 hPa 0,0 l/m 6,3 km/h (2 Bft) O 84 0 min 0,0 UV-I 0 W/m 9,5 C 11,1 C 14,5 km/h (3 Bft)
19.10.2022 21:57 11,1 C 10,6 C 90 % 1021,9 hPa 0,0 l/m 5,6 km/h (1 Bft) O-SO 113 0 min 0,0 UV-I 0 W/m 9,5 C 11,1 C 11,3 km/h (2 Bft)
19.10.2022 22:00 11,1 C 10,6 C 90 % 1021,8 hPa 0,0 l/m 7,0 km/h (2 Bft) O 98 0 min 0,0 UV-I 0 W/m 9,5 C 10,7 C 16,1 km/h (3 Bft)
19.10.2022 22:03 11,1 C 10,6 C 90 % 1021,9 hPa 0,0 l/m 8,6 km/h (2 Bft) NO 46 0 min 0,0 UV-I 0 W/m 9,5 C 9,6 C 14,5 km/h (3 Bft)
19.10.2022 22:06 11,1 C 10,6 C 90 % 1021,8 hPa 0,0 l/m 9,5 km/h (2 Bft) O-NO 74 0 min 0,0 UV-I 0 W/m 9,5 C 9,1 C 22,5 km/h (4 Bft)
19.10.2022 22:09 11,1 C 10,6 C 90 % 1021,9 hPa 0,0 l/m 7,4 km/h (2 Bft) O-SO 102 0 min 0,0 UV-I 0 W/m 9,5 C 10,4 C 12,9 km/h (3 Bft)
19.10.2022 22:12 11,1 C 10,6 C 90 % 1022,0 hPa 0,0 l/m 8,7 km/h (2 Bft) O 98 0 min 0,0 UV-I 0 W/m 9,5 C 9,6 C 16,1 km/h (3 Bft)
19.10.2022 22:15 11,1 C 10,6 C 90 % 1022,0 hPa 0,0 l/m 5,5 km/h (1 Bft) SO 126 0 min 0,0 UV-I 0 W/m 9,5 C 11,1 C 12,9 km/h (3 Bft)
19.10.2022 22:18 11,1 C 10,6 C 90 % 1022,0 hPa 0,0 l/m 7,3 km/h (2 Bft) O-SO 115 0 min 0,0 UV-I 0 W/m 9,5 C 10,5 C 14,5 km/h (3 Bft)
19.10.2022 22:21 11,1 C 10,6 C 90 % 1021,9 hPa 0,0 l/m 5,3 km/h (1 Bft) O 83 0 min 0,0 UV-I 0 W/m 9,5 C 11,1 C 11,3 km/h (2 Bft)
19.10.2022 22:24 11,1 C 10,6 C 90 % 1021,8 hPa 0,0 l/m 7,7 km/h (2 Bft) O 92 0 min 0,0 UV-I 0 W/m 9,5 C 10,2 C 16,1 km/h (3 Bft)
19.10.2022 22:27 11,1 C 10,6 C 90 % 1021,8 hPa 0,0 l/m 5,4 km/h (1 Bft) O-NO 67 0 min 0,0 UV-I 0 W/m 9,5 C 11,1 C 11,3 km/h (2 Bft)
19.10.2022 22:30 11,1 C 10,6 C 90 % 1021,7 hPa 0,0 l/m 2,9 km/h (1 Bft) O 95 0 min 0,0 UV-I 0 W/m 9,5 C 11,1 C 6,4 km/h (2 Bft)
19.10.2022 22:33 11,1 C 10,6 C 90 % 1021,9 hPa 0,0 l/m 6,7 km/h (2 Bft) O 84 0 min 0,0 UV-I 0 W/m 9,5 C 10,9 C 24,1 km/h (4 Bft)
19.10.2022 22:36 11,1 C 10,6 C 90 % 1021,9 hPa 0,0 l/m 13,7 km/h (3 Bft) O 84 0 min 0,0 UV-I 0 W/m 9,5 C 7,0 C 22,5 km/h (4 Bft)
19.10.2022 22:39 11,1 C 10,6 C 90 % 1021,7 hPa 0,0 l/m 9,2 km/h (2 Bft) O 79 0 min 0,0 UV-I 0 W/m 9,5 C 9,3 C 16,1 km/h (3 Bft)
19.10.2022 22:42 11,1 C 10,6 C 91 % 1021,8 hPa 0,0 l/m 10,8 km/h (2 Bft) O 97 0 min 0,0 UV-I 0 W/m 9,7 C 8,4 C 19,3 km/h (3 Bft)
19.10.2022 22:45 11,1 C 10,6 C 91 % 1021,7 hPa 0,0 l/m 10,0 km/h (2 Bft) O-NO 65 0 min 0,0 UV-I 0 W/m 9,7 C 8,8 C 20,9 km/h (4 Bft)
19.10.2022 22:48 11,1 C 10,6 C 91 % 1021,6 hPa 0,0 l/m 13,8 km/h (3 Bft) O 89 0 min 0,0 UV-I 0 W/m 9,7 C 7,0 C 19,3 km/h (3 Bft)
19.10.2022 22:51 11,1 C 10,6 C 91 % 1021,7 hPa 0,0 l/m 14,9 km/h (3 Bft) O 90 0 min 0,0 UV-I 0 W/m 9,7 C 6,5 C 24,1 km/h (4 Bft)
19.10.2022 22:54 11,1 C 10,6 C 91 % 1021,7 hPa 0,0 l/m 12,7 km/h (3 Bft) O 81 0 min 0,0 UV-I 0 W/m 9,7 C 7,5 C 22,5 km/h (4 Bft)
19.10.2022 22:57 11,1 C 10,6 C 91 % 1021,6 hPa 0,0 l/m 13,2 km/h (3 Bft) O 101 0 min 0,0 UV-I 0 W/m 9,7 C 7,2 C 20,9 km/h (4 Bft)
19.10.2022 23:00 11,2 C 10,6 C 91 % 1021,6 hPa 0,0 l/m 11,3 km/h (2 Bft) O 88 0 min 0,0 UV-I 0 W/m 9,8 C 8,2 C 20,9 km/h (4 Bft)
19.10.2022 23:03 11,1 C 10,6 C 91 % 1021,4 hPa 0,0 l/m 13,4 km/h (3 Bft) O-NO 68 0 min 0,0 UV-I 0 W/m 9,7 C 7,1 C 19,3 km/h (3 Bft)
19.10.2022 23:06 11,1 C 10,6 C 91 % 1021,4 hPa 0,0 l/m 13,0 km/h (3 Bft) O 94 0 min 0,0 UV-I 0 W/m 9,7 C 7,3 C 22,5 km/h (4 Bft)
19.10.2022 23:09 11,1 C 10,6 C 91 % 1021,4 hPa 0,0 l/m 17,2 km/h (3 Bft) O-NO 65 0 min 0,0 UV-I 0 W/m 9,7 C 5,6 C 25,7 km/h (4 Bft)
19.10.2022 23:12 11,2 C 10,6 C 91 % 1021,5 hPa 0,0 l/m 13,7 km/h (3 Bft) O 101 0 min 0,0 UV-I 0 W/m 9,8 C 7,1 C 22,5 km/h (4 Bft)
19.10.2022 23:15 11,2 C 10,6 C 91 % 1021,5 hPa 0,0 l/m 10,1 km/h (2 Bft) O 98 0 min 0,0 UV-I 0 W/m 9,8 C 8,9 C 19,3 km/h (3 Bft)
19.10.2022 23:18 11,2 C 10,6 C 91 % 1021,6 hPa 0,0 l/m 12,6 km/h (3 Bft) O-SO 103 0 min 0,0 UV-I 0 W/m 9,8 C 7,6 C 20,9 km/h (4 Bft)
19.10.2022 23:21 11,2 C 10,6 C 91 % 1021,5 hPa 0,0 l/m 7,6 km/h (2 Bft) O 89 0 min 0,0 UV-I 0 W/m 9,8 C 10,4 C 14,5 km/h (3 Bft)
19.10.2022 23:24 11,2 C 10,6 C 91 % 1021,4 hPa 0,0 l/m 14,3 km/h (3 Bft) O-SO 104 0 min 0,0 UV-I 0 W/m 9,8 C 6,9 C 22,5 km/h (4 Bft)
19.10.2022 23:27 11,2 C 10,6 C 91 % 1021,5 hPa 0,0 l/m 12,0 km/h (2 Bft) O 100 0 min 0,0 UV-I 0 W/m 9,8 C 7,9 C 19,3 km/h (3 Bft)
19.10.2022 23:30 11,2 C 10,6 C 91 % 1021,5 hPa 0,0 l/m 15,1 km/h (3 Bft) O 94 0 min 0,0 UV-I 0 W/m 9,8 C 6,5 C 25,7 km/h (4 Bft)
19.10.2022 23:33 11,3 C 10,6 C 91 % 1021,5 hPa 0,0 l/m 12,9 km/h (3 Bft) O 94 0 min 0,0 UV-I 0 W/m 9,9 C 7,6 C 19,3 km/h (3 Bft)
19.10.2022 23:36 11,3 C 10,6 C 91 % 1021,6 hPa 0,0 l/m 12,6 km/h (3 Bft) O-SO 109 0 min 0,0 UV-I 0 W/m 9,9 C 7,7 C 17,7 km/h (3 Bft)
19.10.2022 23:39 11,3 C 10,6 C 91 % 1021,5 hPa 0,0 l/m 9,6 km/h (2 Bft) O-SO 122 0 min 0,0 UV-I 0 W/m 9,9 C 9,3 C 16,1 km/h (3 Bft)
19.10.2022 23:42 11,4 C 10,6 C 91 % 1021,5 hPa 0,0 l/m 11,0 km/h (2 Bft) O-SO 112 0 min 0,0 UV-I 0 W/m 10,0 C 8,6 C 19,3 km/h (3 Bft)
19.10.2022 23:45 11,4 C 11,1 C 91 % 1021,4 hPa 0,0 l/m 11,4 km/h (2 Bft) O-SO 117 0 min 0,0 UV-I 0 W/m 10,0 C 8,4 C 22,5 km/h (4 Bft)
19.10.2022 23:48 11,4 C 11,1 C 91 % 1021,4 hPa 0,0 l/m 11,3 km/h (2 Bft) O 97 0 min 0,0 UV-I 0 W/m 10,0 C 8,5 C 20,9 km/h (4 Bft)
19.10.2022 23:51 11,4 C 11,1 C 91 % 1021,4 hPa 0,0 l/m 13,3 km/h (3 Bft) O 90 0 min 0,0 UV-I 0 W/m 10,0 C 7,5 C 22,5 km/h (4 Bft)
19.10.2022 23:54 11,4 C 11,1 C 91 % 1021,3 hPa 0,0 l/m 11,0 km/h (2 Bft) O 89 0 min 0,0 UV-I 0 W/m 10,0 C 8,6 C 16,1 km/h (3 Bft)
19.10.2022 23:57 11,5 C 11,1 C 91 % 1021,2 hPa 0,0 l/m 12,3 km/h (3 Bft) O-NO 69 0 min 0,0 UV-I 0 W/m 10,1 C 8,1 C 19,3 km/h (3 Bft)
_ Min-Zeit 06:15 06:15 16:18 23:57 - 00:15 - - - - - 06:15 11:03 00:15
Minimum _ 4,1 C 2,8 C 86 % 1021,2 hPa - 0,0 km/h (0 Bft) - - - - - 3,2 C 3,9 C 0,0 km/h (0 Bft)
_ Max-Zeit 15:33 14:54 10:54 00:03 15:09 20:30 - - 14:27 14:27 14:54 14:51 15:30 23:09
Maximum _ 13,8 C 23,9 C 96 % 1029,3 hPa 0,2 l/m 17,3 km/h
O-SO (3 Bft)
- - 3 min 2,1 UV-I 427 W/m 12,0 C 13,7 C 25,7 km/h
O (4 Bft)
Durchschnitt _ 9,6 C 10,4 C 93 % 1025,9 hPa #0,2 l/m 6,3 km/h (2 Bft) N-NO - #45 min. 1,0 UV-I 153 W/m 8,5 C 8,6 C 10,9 km/h (2 Bft)